Wetterdaten: Dienstag, 24.02.2015
Datum Zeit Temp. Aussen +5cm Feuchte Auss Luftdruck Regen Sonnenschein Regendauer Solar Windben
24.02.2015 00:00 3,4 C 1,7 C 87 % 997,4 hPa 0,0 l/m 0 min 0 min 0 W/m 18,8 km/h (3 Bft)
24.02.2015 00:02 3,4 C 1,7 C 87 % 997,5 hPa 0,0 l/m 0 min 0 min 0 W/m 31,4 km/h (5 Bft)
24.02.2015 00:06 3,4 C 1,7 C 87 % 997,4 hPa 0,0 l/m 0 min 0 min 0 W/m 20,9 km/h (4 Bft)
24.02.2015 00:08 3,4 C 1,7 C 87 % 997,4 hPa 0,0 l/m 0 min 0 min 0 W/m 25,1 km/h (4 Bft)
24.02.2015 00:10 3,4 C 1,7 C 86 % 997,4 hPa 0,0 l/m 0 min 0 min 0 W/m 18,8 km/h (3 Bft)
24.02.2015 00:12 3,4 C 1,7 C 86 % 997,4 hPa 0,0 l/m 0 min 0 min 0 W/m 25,1 km/h (4 Bft)
24.02.2015 00:14 3,4 C 1,7 C 86 % 997,4 hPa 0,0 l/m 0 min 0 min 0 W/m 29,3 km/h (5 Bft)
24.02.2015 00:16 3,4 C 1,7 C 86 % 997,4 hPa 0,0 l/m 0 min 0 min 0 W/m 20,9 km/h (4 Bft)
24.02.2015 00:18 3,4 C 1,7 C 86 % 997,4 hPa 0,0 l/m 0 min 0 min 0 W/m 23,0 km/h (4 Bft)
24.02.2015 00:20 3,4 C 1,7 C 86 % 997,4 hPa 0,0 l/m 0 min 0 min 0 W/m 20,9 km/h (4 Bft)
24.02.2015 00:22 3,4 C 1,7 C 86 % 997,5 hPa 0,0 l/m 0 min 0 min 0 W/m 16,7 km/h (3 Bft)
24.02.2015 00:24 3,4 C 1,7 C 86 % 997,4 hPa 0,0 l/m 0 min 0 min 0 W/m 27,2 km/h (4 Bft)
24.02.2015 00:26 3,5 C 1,7 C 86 % 997,4 hPa 0,0 l/m 0 min 0 min 0 W/m 35,6 km/h (5 Bft)
24.02.2015 00:28 3,5 C 1,7 C 86 % 997,5 hPa 0,0 l/m 0 min 0 min 0 W/m 23,0 km/h (4 Bft)
24.02.2015 00:30 3,5 C 1,7 C 85 % 997,6 hPa 0,0 l/m 0 min 0 min 0 W/m 31,4 km/h (5 Bft)
24.02.2015 00:32 3,6 C 1,7 C 85 % 997,5 hPa 0,0 l/m 0 min 0 min 0 W/m 25,1 km/h (4 Bft)
24.02.2015 00:34 3,6 C 1,7 C 85 % 997,6 hPa 0,0 l/m 0 min 0 min 0 W/m 25,1 km/h (4 Bft)
24.02.2015 00:36 3,6 C 1,7 C 85 % 997,5 hPa 0,0 l/m 0 min 0 min 0 W/m 23,0 km/h (4 Bft)
24.02.2015 00:38 3,6 C 1,7 C 85 % 997,4 hPa 0,0 l/m 0 min 0 min 0 W/m 23,0 km/h (4 Bft)
24.02.2015 00:40 3,6 C 1,7 C 85 % 997,4 hPa 0,0 l/m 0 min 0 min 0 W/m 23,0 km/h (4 Bft)
24.02.2015 00:42 3,6 C 1,7 C 85 % 997,4 hPa 0,0 l/m 0 min 0 min 0 W/m 23,0 km/h (4 Bft)
24.02.2015 00:44 3,6 C 1,7 C 85 % 997,4 hPa 0,0 l/m 0 min 0 min 0 W/m 25,1 km/h (4 Bft)
24.02.2015 00:46 3,6 C 1,7 C 85 % 997,5 hPa 0,0 l/m 0 min 0 min 0 W/m 20,9 km/h (4 Bft)
24.02.2015 00:48 3,6 C 1,7 C 85 % 997,6 hPa 0,0 l/m 0 min 0 min 0 W/m 20,9 km/h (4 Bft)
24.02.2015 00:50 3,6 C 1,7 C 85 % 997,6 hPa 0,0 l/m 0 min 0 min 0 W/m 29,3 km/h (5 Bft)
24.02.2015 00:52 3,6 C 1,7 C 85 % 997,6 hPa 0,0 l/m 0 min 0 min 0 W/m 18,8 km/h (3 Bft)
24.02.2015 00:54 3,6 C 1,7 C 85 % 997,7 hPa 0,0 l/m 0 min 0 min 0 W/m 18,8 km/h (3 Bft)
24.02.2015 00:56 3,6 C 1,7 C 85 % 997,7 hPa 0,0 l/m 0 min 0 min 0 W/m 16,7 km/h (3 Bft)
24.02.2015 00:58 3,6 C 1,7 C 85 % 997,8 hPa 0,0 l/m 0 min 0 min 0 W/m 27,2 km/h (4 Bft)
24.02.2015 01:00 3,6 C 1,7 C 85 % 997,8 hPa 0,0 l/m 0 min 0 min 0 W/m 23,0 km/h (4 Bft)
24.02.2015 01:02 3,6 C 1,7 C 85 % 997,8 hPa 0,0 l/m 0 min 0 min 0 W/m 23,0 km/h (4 Bft)
24.02.2015 01:04 3,6 C 1,7 C 85 % 997,8 hPa 0,0 l/m 0 min 0 min 0 W/m 20,9 km/h (4 Bft)
24.02.2015 01:06 3,6 C 1,7 C 85 % 997,8 hPa 0,0 l/m 0 min 0 min 0 W/m 16,7 km/h (3 Bft)
24.02.2015 01:08 3,6 C 1,7 C 85 % 997,9 hPa 0,0 l/m 0 min 0 min 0 W/m 25,1 km/h (4 Bft)
24.02.2015 01:10 3,6 C 2,2 C 85 % 997,9 hPa 0,0 l/m 0 min 0 min 0 W/m 27,2 km/h (4 Bft)
24.02.2015 01:12 3,6 C 2,2 C 85 % 997,8 hPa 0,0 l/m 0 min 0 min 0 W/m 20,9 km/h (4 Bft)
24.02.2015 01:14 3,6 C 2,2 C 85 % 997,8 hPa 0,0 l/m 0 min 0 min 0 W/m 27,2 km/h (4 Bft)
24.02.2015 01:16 3,6 C 2,2 C 85 % 997,8 hPa 0,0 l/m 0 min 0 min 0 W/m 16,7 km/h (3 Bft)
24.02.2015 01:18 3,6 C 2,2 C 85 % 997,7 hPa 0,0 l/m 0 min 0 min 0 W/m 18,8 km/h (3 Bft)
24.02.2015 01:20 3,6 C 2,2 C 85 % 997,7 hPa 0,0 l/m 0 min 0 min 0 W/m 20,9 km/h (4 Bft)
24.02.2015 01:22 3,6 C 2,2 C 85 % 997,8 hPa 0,0 l/m 0 min 0 min 0 W/m 27,2 km/h (4 Bft)
24.02.2015 01:24 3,7 C 2,2 C 86 % 997,7 hPa 0,0 l/m 0 min 0 min 0 W/m 23,0 km/h (4 Bft)
24.02.2015 01:26 3,7 C 2,2 C 86 % 997,8 hPa 0,0 l/m 0 min 0 min 0 W/m 25,1 km/h (4 Bft)
24.02.2015 01:28 3,7 C 2,2 C 86 % 997,9 hPa 0,0 l/m 0 min 0 min 0 W/m 29,3 km/h (5 Bft)
24.02.2015 01:30 3,7 C 2,2 C 86 % 997,9 hPa 0,0 l/m 0 min 0 min 0 W/m 20,9 km/h (4 Bft)
24.02.2015 01:32 3,7 C 2,2 C 86 % 997,9 hPa 0,0 l/m 0 min 0 min 0 W/m 20,9 km/h (4 Bft)
24.02.2015 01:34 3,7 C 2,2 C 86 % 997,9 hPa 0,0 l/m 0 min 0 min 0 W/m 23,0 km/h (4 Bft)
24.02.2015 01:36 3,7 C 2,2 C 86 % 998,0 hPa 0,0 l/m 0 min 0 min 0 W/m 27,2 km/h (4 Bft)
24.02.2015 01:38 3,7 C 2,2 C 85 % 998,1 hPa 0,0 l/m 0 min 0 min 0 W/m 23,0 km/h (4 Bft)
24.02.2015 01:40 3,7 C 2,2 C 85 % 998,0 hPa 0,0 l/m 0 min 0 min 0 W/m 18,8 km/h (3 Bft)
24.02.2015 01:42 3,7 C 2,2 C 85 % 998,0 hPa 0,0 l/m 0 min 0 min 0 W/m 20,9 km/h (4 Bft)
24.02.2015 01:44 3,7 C 2,2 C 85 % 997,9 hPa 0,0 l/m 0 min 0 min 0 W/m 27,2 km/h (4 Bft)
24.02.2015 01:46 3,7 C 2,2 C 85 % 998,0 hPa 0,0 l/m 0 min 0 min 0 W/m 27,2 km/h (4 Bft)
24.02.2015 01:48 3,7 C 2,2 C 85 % 998,0 hPa 0,0 l/m 0 min 0 min 0 W/m 23,0 km/h (4 Bft)
24.02.2015 01:50 3,7 C 2,2 C 85 % 998,1 hPa 0,0 l/m 0 min 0 min 0 W/m 20,9 km/h (4 Bft)
24.02.2015 01:52 3,7 C 2,2 C 85 % 998,0 hPa 0,0 l/m 0 min 0 min 0 W/m 18,8 km/h (3 Bft)
24.02.2015 01:54 3,7 C 1,7 C 85 % 998,1 hPa 0,0 l/m 0 min 0 min 0 W/m 18,8 km/h (3 Bft)
24.02.2015 01:56 3,7 C 1,7 C 85 % 998,1 hPa 0,0 l/m 0 min 0 min 0 W/m 25,1 km/h (4 Bft)
24.02.2015 01:58 3,7 C 1,7 C 85 % 998,1 hPa 0,0 l/m 0 min 0 min 0 W/m 31,4 km/h (5 Bft)
24.02.2015 02:00 3,7 C 1,7 C 85 % 998,0 hPa 0,0 l/m 0 min 0 min 0 W/m 25,1 km/h (4 Bft)
24.02.2015 02:02 3,7 C 2,2 C 85 % 998,0 hPa 0,0 l/m 0 min 0 min 0 W/m 27,2 km/h (4 Bft)
24.02.2015 02:04 3,7 C 2,2 C 85 % 998,1 hPa 0,0 l/m 0 min 0 min 0 W/m 29,3 km/h (5 Bft)
24.02.2015 02:06 3,7 C 1,7 C 85 % 998,1 hPa 0,0 l/m 0 min 0 min 0 W/m 16,7 km/h (3 Bft)
24.02.2015 02:08 3,7 C 1,7 C 85 % 998,1 hPa 0,0 l/m 0 min 0 min 0 W/m 31,4 km/h (5 Bft)
24.02.2015 02:10 3,7 C 2,2 C 85 % 998,1 hPa 0,0 l/m 0 min 0 min 0 W/m 25,1 km/h (4 Bft)
24.02.2015 02:12 3,7 C 1,7 C 85 % 998,2 hPa 0,0 l/m 0 min 0 min 0 W/m 25,1 km/h (4 Bft)
24.02.2015 02:14 3,6 C 1,7 C 85 % 998,3 hPa 0,0 l/m 0 min 0 min 0 W/m 29,3 km/h (5 Bft)
24.02.2015 02:16 3,6 C 1,7 C 85 % 998,2 hPa 0,0 l/m 0 min 0 min 0 W/m 31,4 km/h (5 Bft)
24.02.2015 02:18 3,6 C 2,2 C 85 % 998,2 hPa 0,0 l/m 0 min 0 min 0 W/m 23,0 km/h (4 Bft)
24.02.2015 02:20 3,6 C 1,7 C 85 % 998,2 hPa 0,0 l/m 0 min 0 min 0 W/m 27,2 km/h (4 Bft)
24.02.2015 02:22 3,6 C 1,7 C 85 % 998,3 hPa 0,0 l/m 0 min 0 min 0 W/m 25,1 km/h (4 Bft)
24.02.2015 02:24 3,6 C 1,7 C 85 % 998,3 hPa 0,0 l/m 0 min 0 min 0 W/m 25,1 km/h (4 Bft)
24.02.2015 02:26 3,6 C 1,7 C 85 % 998,3 hPa 0,0 l/m 0 min 0 min 0 W/m 20,9 km/h (4 Bft)
24.02.2015 02:28 3,6 C 1,7 C 85 % 998,3 hPa 0,0 l/m 0 min 0 min 0 W/m 20,9 km/h (4 Bft)
24.02.2015 02:30 3,6 C 1,7 C 85 % 998,3 hPa 0,0 l/m 0 min 0 min 0 W/m 23,0 km/h (4 Bft)
24.02.2015 02:32 3,6 C 1,7 C 85 % 998,3 hPa 0,0 l/m 0 min 0 min 0 W/m 23,0 km/h (4 Bft)
24.02.2015 02:34 3,6 C 1,7 C 85 % 998,2 hPa 0,0 l/m 0 min 0 min 0 W/m 25,1 km/h (4 Bft)
24.02.2015 02:36 3,5 C 1,7 C 85 % 998,2 hPa 0,0 l/m 0 min 0 min 0 W/m 23,0 km/h (4 Bft)
24.02.2015 02:38 3,5 C 1,7 C 85 % 998,3 hPa 0,0 l/m 0 min 0 min 0 W/m 25,1 km/h (4 Bft)
24.02.2015 02:40 3,5 C 1,7 C 85 % 998,2 hPa 0,0 l/m 0 min 0 min 0 W/m 25,1 km/h (4 Bft)
24.02.2015 02:42 3,5 C 1,7 C 85 % 998,1 hPa 0,0 l/m 0 min 0 min 0 W/m 20,9 km/h (4 Bft)
24.02.2015 02:44 3,5 C 1,7 C 85 % 998,1 hPa 0,0 l/m 0 min 0 min 0 W/m 27,2 km/h (4 Bft)
24.02.2015 02:46 3,5 C 1,7 C 85 % 998,2 hPa 0,0 l/m 0 min 0 min 0 W/m 20,9 km/h (4 Bft)
24.02.2015 02:48 3,5 C 1,7 C 85 % 998,2 hPa 0,0 l/m 0 min 0 min 0 W/m 20,9 km/h (4 Bft)
24.02.2015 02:50 3,4 C 1,7 C 85 % 998,1 hPa 0,0 l/m 0 min 0 min 0 W/m 20,9 km/h (4 Bft)
24.02.2015 02:52 3,4 C 1,7 C 85 % 998,1 hPa 0,0 l/m 0 min 0 min 0 W/m 16,7 km/h (3 Bft)
24.02.2015 02:54 3,4 C 1,7 C 85 % 998,0 hPa 0,0 l/m 0 min 0 min 0 W/m 20,9 km/h (4 Bft)
24.02.2015 02:56 3,4 C 1,7 C 85 % 998,1 hPa 0,0 l/m 0 min 0 min 0 W/m 25,1 km/h (4 Bft)
24.02.2015 02:58 3,4 C 1,7 C 85 % 998,2 hPa 0,0 l/m 0 min 0 min 0 W/m 20,9 km/h (4 Bft)
24.02.2015 03:00 3,4 C 1,7 C 85 % 998,2 hPa 0,0 l/m 0 min 0 min 0 W/m 25,1 km/h (4 Bft)
24.02.2015 03:02 3,4 C 1,7 C 85 % 998,3 hPa 0,0 l/m 0 min 0 min 0 W/m 16,7 km/h (3 Bft)
24.02.2015 03:04 3,4 C 1,7 C 85 % 998,3 hPa 0,0 l/m 0 min 0 min 0 W/m 16,7 km/h (3 Bft)
24.02.2015 03:06 3,3 C 1,7 C 85 % 998,2 hPa 0,0 l/m 0 min 0 min 0 W/m 14,6 km/h (3 Bft)
24.02.2015 03:08 3,3 C 1,7 C 85 % 998,3 hPa 0,0 l/m 0 min 0 min 0 W/m 16,7 km/h (3 Bft)
24.02.2015 03:10 3,3 C 1,7 C 85 % 998,2 hPa 0,0 l/m 0 min 0 min 0 W/m 20,9 km/h (4 Bft)
24.02.2015 03:12 3,3 C 1,7 C 86 % 998,2 hPa 0,0 l/m 0 min 0 min 0 W/m 27,2 km/h (4 Bft)
24.02.2015 03:14 3,3 C 1,7 C 86 % 998,3 hPa 0,0 l/m 0 min 0 min 0 W/m 20,9 km/h (4 Bft)
24.02.2015 03:16 3,3 C 1,7 C 86 % 998,2 hPa 0,0 l/m 0 min 0 min 0 W/m 12,6 km/h (3 Bft)
24.02.2015 03:18 3,3 C 1,7 C 86 % 998,3 hPa 0,0 l/m 0 min 0 min 0 W/m 23,0 km/h (4 Bft)
24.02.2015 03:20 3,3 C 1,7 C 86 % 998,2 hPa 0,0 l/m 0 min 0 min 0 W/m 25,1 km/h (4 Bft)
24.02.2015 03:22 3,3 C 1,7 C 86 % 998,1 hPa 0,0 l/m 0 min 0 min 0 W/m 29,3 km/h (5 Bft)
24.02.2015 03:24 3,3 C 1,7 C 86 % 998,2 hPa 0,0 l/m 0 min 0 min 0 W/m 27,2 km/h (4 Bft)
24.02.2015 03:26 3,2 C 1,7 C 86 % 998,2 hPa 0,0 l/m 0 min 0 min 0 W/m 20,9 km/h (4 Bft)
24.02.2015 03:28 3,3 C 1,7 C 86 % 998,2 hPa 0,0 l/m 0 min 0 min 0 W/m 25,1 km/h (4 Bft)
24.02.2015 03:30 3,2 C 1,7 C 86 % 998,2 hPa 0,0 l/m 0 min 0 min 0 W/m 25,1 km/h (4 Bft)
24.02.2015 03:32 3,2 C 1,7 C 86 % 998,2 hPa 0,0 l/m 0 min 0 min 0 W/m 23,0 km/h (4 Bft)
24.02.2015 03:34 3,2 C 1,7 C 86 % 998,2 hPa 0,0 l/m 0 min 0 min 0 W/m 25,1 km/h (4 Bft)
24.02.2015 03:36 3,2 C 1,7 C 86 % 998,3 hPa 0,0 l/m 0 min 0 min 0 W/m 23,0 km/h (4 Bft)
24.02.2015 03:38 3,2 C 1,7 C 86 % 998,3 hPa 0,0 l/m 0 min 0 min 0 W/m 23,0 km/h (4 Bft)
24.02.2015 03:40 3,3 C 1,7 C 86 % 998,3 hPa 0,0 l/m 0 min 0 min 0 W/m 29,3 km/h (5 Bft)
24.02.2015 03:42 3,3 C 1,7 C 86 % 998,5 hPa 0,0 l/m 0 min 0 min 0 W/m 23,0 km/h (4 Bft)
24.02.2015 03:44 3,3 C 1,7 C 86 % 998,4 hPa 0,0 l/m 0 min 0 min 0 W/m 27,2 km/h (4 Bft)
24.02.2015 03:46 3,3 C 1,7 C 86 % 998,4 hPa 0,0 l/m 0 min 0 min 0 W/m 23,0 km/h (4 Bft)
24.02.2015 03:48 3,3 C 1,7 C 86 % 998,5 hPa 0,0 l/m 0 min 0 min 0 W/m 20,9 km/h (4 Bft)
24.02.2015 03:50 3,3 C 1,7 C 86 % 998,5 hPa 0,0 l/m 0 min 0 min 0 W/m 20,9 km/h (4 Bft)
24.02.2015 03:52 3,3 C 1,7 C 86 % 998,5 hPa 0,0 l/m 0 min 0 min 0 W/m 25,1 km/h (4 Bft)
24.02.2015 03:54 3,3 C 1,7 C 86 % 998,6 hPa 0,0 l/m 0 min 0 min 0 W/m 20,9 km/h (4 Bft)
24.02.2015 03:56 3,3 C 1,7 C 86 % 998,5 hPa 0,0 l/m 0 min 0 min 0 W/m 29,3 km/h (5 Bft)
24.02.2015 03:58 3,3 C 1,7 C 86 % 998,6 hPa 0,0 l/m 0 min 0 min 0 W/m 35,6 km/h (5 Bft)
24.02.2015 04:00 3,3 C 1,7 C 86 % 998,6 hPa 0,0 l/m 0 min 0 min 0 W/m 25,1 km/h (4 Bft)
24.02.2015 04:02 3,3 C 1,7 C 86 % 998,6 hPa 0,0 l/m 0 min 0 min 0 W/m 25,1 km/h (4 Bft)
24.02.2015 04:04 3,3 C 1,7 C 86 % 998,7 hPa 0,0 l/m 0 min 0 min 0 W/m 25,1 km/h (4 Bft)
24.02.2015 04:06 3,3 C 1,7 C 86 % 998,6 hPa 0,0 l/m 0 min 0 min 0 W/m 29,3 km/h (5 Bft)
24.02.2015 04:08 3,3 C 1,7 C 86 % 998,6 hPa 0,0 l/m 0 min 0 min 0 W/m 29,3 km/h (5 Bft)
24.02.2015 04:10 3,4 C 1,7 C 86 % 998,8 hPa 0,0 l/m 0 min 0 min 0 W/m 27,2 km/h (4 Bft)
24.02.2015 04:12 3,4 C 1,7 C 86 % 998,8 hPa 0,0 l/m 0 min 0 min 0 W/m 31,4 km/h (5 Bft)
24.02.2015 04:14 3,4 C 1,7 C 86 % 998,7 hPa 0,0 l/m 0 min 0 min 0 W/m 25,1 km/h (4 Bft)
24.02.2015 04:16 3,4 C 1,7 C 86 % 998,6 hPa 0,0 l/m 0 min 0 min 0 W/m 27,2 km/h (4 Bft)
24.02.2015 04:18 3,4 C 1,7 C 86 % 998,7 hPa 0,0 l/m 0 min 0 min 0 W/m 29,3 km/h (5 Bft)
24.02.2015 04:20 3,4 C 1,7 C 86 % 998,6 hPa 0,0 l/m 0 min 0 min 0 W/m 35,6 km/h (5 Bft)
24.02.2015 04:22 3,4 C 1,7 C 86 % 998,6 hPa 0,0 l/m 0 min 0 min 0 W/m 29,3 km/h (5 Bft)
24.02.2015 04:24 3,4 C 1,7 C 85 % 998,6 hPa 0,0 l/m 0 min 0 min 0 W/m 27,2 km/h (4 Bft)
24.02.2015 04:26 3,4 C 1,7 C 85 % 998,6 hPa 0,0 l/m 0 min 0 min 0 W/m 31,4 km/h (5 Bft)
24.02.2015 04:28 3,4 C 1,7 C 85 % 998,6 hPa 0,0 l/m 0 min 0 min 0 W/m 23,0 km/h (4 Bft)
24.02.2015 04:30 3,4 C 1,7 C 85 % 998,6 hPa 0,0 l/m 0 min 0 min 0 W/m 29,3 km/h (5 Bft)
24.02.2015 04:32 3,4 C 1,7 C 85 % 998,6 hPa 0,0 l/m 0 min 0 min 0 W/m 18,8 km/h (3 Bft)
24.02.2015 04:34 3,4 C 1,7 C 85 % 998,7 hPa 0,0 l/m 0 min 0 min 0 W/m 29,3 km/h (5 Bft)
24.02.2015 04:36 3,4 C 1,7 C 85 % 998,6 hPa 0,0 l/m 0 min 0 min 0 W/m 35,6 km/h (5 Bft)
24.02.2015 04:38 3,4 C 1,7 C 85 % 998,7 hPa 0,0 l/m 0 min 0 min 0 W/m 37,7 km/h (5 Bft)
24.02.2015 04:40 3,4 C 1,7 C 85 % 998,8 hPa 0,0 l/m 0 min 0 min 0 W/m 37,7 km/h (5 Bft)
24.02.2015 04:42 3,4 C 1,7 C 85 % 998,7 hPa 0,0 l/m 0 min 0 min 0 W/m 18,8 km/h (3 Bft)
24.02.2015 04:44 3,3 C 1,7 C 85 % 998,8 hPa 0,0 l/m 0 min 0 min 0 W/m 29,3 km/h (5 Bft)
24.02.2015 04:46 3,3 C 1,7 C 85 % 998,8 hPa 0,0 l/m 0 min 0 min 0 W/m 29,3 km/h (5 Bft)
24.02.2015 04:48 3,3 C 1,7 C 85 % 998,8 hPa 0,0 l/m 0 min 0 min 0 W/m 25,1 km/h (4 Bft)
24.02.2015 04:50 3,3 C 1,7 C 85 % 998,8 hPa 0,0 l/m 0 min 0 min 0 W/m 35,6 km/h (5 Bft)
24.02.2015 04:52 3,3 C 1,7 C 85 % 998,7 hPa 0,0 l/m 0 min 0 min 0 W/m 27,2 km/h (4 Bft)
24.02.2015 04:54 3,3 C 1,7 C 85 % 998,7 hPa 0,0 l/m 0 min 0 min 0 W/m 18,8 km/h (3 Bft)
24.02.2015 04:56 3,3 C 1,7 C 85 % 998,7 hPa 0,0 l/m 0 min 0 min 0 W/m 20,9 km/h (4 Bft)
24.02.2015 04:58 3,3 C 1,7 C 85 % 998,7 hPa 0,0 l/m 0 min 0 min 0 W/m 33,5 km/h (5 Bft)
24.02.2015 05:00 3,3 C 1,7 C 85 % 998,7 hPa 0,0 l/m 0 min 0 min 0 W/m 39,7 km/h (6 Bft)
24.02.2015 05:02 3,3 C 1,7 C 85 % 998,9 hPa 0,0 l/m 0 min 0 min 0 W/m 29,3 km/h (5 Bft)
24.02.2015 05:04 3,3 C 1,7 C 85 % 998,8 hPa 0,0 l/m 0 min 0 min 0 W/m 27,2 km/h (4 Bft)
24.02.2015 05:06 3,3 C 1,7 C 85 % 998,8 hPa 0,0 l/m 0 min 0 min 0 W/m 33,5 km/h (5 Bft)
24.02.2015 05:08 3,3 C 1,7 C 85 % 998,9 hPa 0,0 l/m 0 min 0 min 0 W/m 27,2 km/h (4 Bft)
24.02.2015 05:10 3,3 C 1,7 C 85 % 998,8 hPa 0,0 l/m 0 min 0 min 0 W/m 31,4 km/h (5 Bft)
24.02.2015 05:12 3,3 C 1,7 C 85 % 998,8 hPa 0,0 l/m 0 min 0 min 0 W/m 29,3 km/h (5 Bft)
24.02.2015 05:14 3,3 C 1,7 C 85 % 998,8 hPa 0,0 l/m 0 min 0 min 0 W/m 27,2 km/h (4 Bft)
24.02.2015 05:16 3,3 C 1,7 C 85 % 998,8 hPa 0,0 l/m 0 min 0 min 0 W/m 41,8 km/h (6 Bft)
24.02.2015 05:18 3,3 C 1,7 C 85 % 998,8 hPa 0,0 l/m 0 min 0 min 0 W/m 23,0 km/h (4 Bft)
24.02.2015 05:20 3,3 C 1,7 C 85 % 998,8 hPa 0,0 l/m 0 min 0 min 0 W/m 23,0 km/h (4 Bft)
24.02.2015 05:22 3,3 C 1,7 C 85 % 998,8 hPa 0,0 l/m 0 min 0 min 0 W/m 27,2 km/h (4 Bft)
24.02.2015 05:24 3,3 C 1,7 C 85 % 998,8 hPa 0,0 l/m 0 min 0 min 0 W/m 27,2 km/h (4 Bft)
24.02.2015 05:26 3,3 C 1,7 C 85 % 998,8 hPa 0,0 l/m 0 min 0 min 0 W/m 27,2 km/h (4 Bft)
24.02.2015 05:28 3,3 C 1,7 C 85 % 999,0 hPa 0,0 l/m 0 min 0 min 0 W/m 27,2 km/h (4 Bft)
24.02.2015 05:30 3,3 C 1,7 C 85 % 999,2 hPa 0,0 l/m 0 min 0 min 0 W/m 29,3 km/h (5 Bft)
24.02.2015 05:32 3,3 C 1,7 C 85 % 999,1 hPa 0,0 l/m 0 min 0 min 0 W/m 25,1 km/h (4 Bft)
24.02.2015 05:34 3,3 C 1,7 C 85 % 999,0 hPa 0,0 l/m 0 min 0 min 0 W/m 18,8 km/h (3 Bft)
24.02.2015 05:36 3,3 C 1,7 C 85 % 999,0 hPa 0,0 l/m 0 min 0 min 0 W/m 31,4 km/h (5 Bft)
24.02.2015 05:38 3,3 C 1,7 C 85 % 999,0 hPa 0,0 l/m 0 min 0 min 0 W/m 23,0 km/h (4 Bft)
24.02.2015 05:40 3,3 C 1,7 C 85 % 999,2 hPa 0,0 l/m 0 min 0 min 0 W/m 23,0 km/h (4 Bft)
24.02.2015 05:42 3,3 C 1,7 C 85 % 999,4 hPa 0,0 l/m 0 min 0 min 0 W/m 33,5 km/h (5 Bft)
24.02.2015 05:44 3,2 C 1,7 C 85 % 999,3 hPa 0,0 l/m 0 min 0 min 0 W/m 18,8 km/h (3 Bft)
24.02.2015 05:46 3,2 C 1,7 C 85 % 999,3 hPa 0,0 l/m 0 min 0 min 0 W/m 25,1 km/h (4 Bft)
24.02.2015 05:48 3,2 C 1,7 C 85 % 999,3 hPa 0,0 l/m 0 min 0 min 0 W/m 23,0 km/h (4 Bft)
24.02.2015 05:50 3,2 C 1,7 C 85 % 999,4 hPa 0,0 l/m 0 min 0 min 0 W/m 29,3 km/h (5 Bft)
24.02.2015 05:52 3,2 C 1,7 C 85 % 999,4 hPa 0,2 l/m 0 min 0 min 0 W/m 31,4 km/h (5 Bft)
24.02.2015 05:54 3,2 C 1,7 C 85 % 999,5 hPa 0,0 l/m 0 min 0 min 0 W/m 23,0 km/h (4 Bft)
24.02.2015 05:56 3,2 C 1,7 C 85 % 999,5 hPa 0,0 l/m 0 min 0 min 0 W/m 25,1 km/h (4 Bft)
24.02.2015 05:58 3,2 C 1,7 C 85 % 999,5 hPa 0,0 l/m 0 min 0 min 0 W/m 20,9 km/h (4 Bft)
24.02.2015 06:00 3,2 C 1,7 C 85 % 999,4 hPa 0,0 l/m 0 min 0 min 0 W/m 25,1 km/h (4 Bft)
24.02.2015 06:02 3,2 C 1,7 C 85 % 999,5 hPa 0,0 l/m 0 min 0 min 0 W/m 23,0 km/h (4 Bft)
24.02.2015 06:06 3,2 C 1,7 C 85 % 999,5 hPa 0,0 l/m 0 min 0 min 0 W/m 20,9 km/h (4 Bft)
24.02.2015 06:08 3,2 C 1,7 C 85 % 999,5 hPa 0,0 l/m 0 min 0 min 0 W/m 25,1 km/h (4 Bft)
24.02.2015 06:10 3,2 C 1,7 C 85 % 999,5 hPa 0,0 l/m 0 min 0 min 0 W/m 25,1 km/h (4 Bft)
24.02.2015 06:12 3,2 C 1,7 C 86 % 999,6 hPa 0,0 l/m 0 min 0 min 0 W/m 35,6 km/h (5 Bft)
24.02.2015 06:14 3,2 C 1,7 C 86 % 999,6 hPa 0,0 l/m 0 min 0 min 0 W/m 18,8 km/h (3 Bft)
24.02.2015 06:16 3,2 C 2,2 C 86 % 999,6 hPa 0,0 l/m 0 min 0 min 0 W/m 31,4 km/h (5 Bft)
24.02.2015 06:18 3,3 C 2,2 C 86 % 999,6 hPa 0,0 l/m 0 min 0 min 0 W/m 25,1 km/h (4 Bft)
24.02.2015 06:20 3,3 C 2,2 C 86 % 999,6 hPa 0,0 l/m 0 min 0 min 0 W/m 25,1 km/h (4 Bft)
24.02.2015 06:22 3,3 C 2,2 C 86 % 999,6 hPa 0,0 l/m 0 min 0 min 0 W/m 25,1 km/h (4 Bft)
24.02.2015 06:24 3,3 C 2,2 C 86 % 999,6 hPa 0,0 l/m 0 min 0 min 0 W/m 25,1 km/h (4 Bft)
24.02.2015 06:26 3,4 C 2,2 C 86 % 999,6 hPa 0,0 l/m 0 min 0 min 0 W/m 27,2 km/h (4 Bft)
24.02.2015 06:28 3,4 C 2,2 C 86 % 999,9 hPa 0,0 l/m 0 min 0 min 0 W/m 33,5 km/h (5 Bft)
24.02.2015 06:30 3,4 C 2,2 C 86 % 999,8 hPa 0,0 l/m 0 min 0 min 0 W/m 25,1 km/h (4 Bft)
24.02.2015 06:32 3,4 C 2,2 C 85 % 999,9 hPa 0,0 l/m 0 min 0 min 0 W/m 23,0 km/h (4 Bft)
24.02.2015 06:34 3,5 C 2,2 C 85 % 999,9 hPa 0,0 l/m 0 min 0 min 0 W/m 27,2 km/h (4 Bft)
24.02.2015 06:36 3,5 C 2,2 C 85 % 999,9 hPa 0,0 l/m 0 min 0 min 0 W/m 25,1 km/h (4 Bft)
24.02.2015 06:38 3,5 C 2,2 C 85 % 999,9 hPa 0,0 l/m 0 min 0 min 0 W/m 29,3 km/h (5 Bft)
24.02.2015 06:40 3,6 C 2,2 C 85 % 999,9 hPa 0,0 l/m 0 min 0 min 0 W/m 18,8 km/h (3 Bft)
24.02.2015 06:42 3,6 C 2,2 C 85 % 999,9 hPa 0,0 l/m 0 min 0 min 0 W/m 29,3 km/h (5 Bft)
24.02.2015 06:44 3,6 C 1,7 C 85 % 1000,0 hPa 0,0 l/m 0 min 2 min 0 W/m 31,4 km/h (5 Bft)
24.02.2015 06:46 3,6 C 1,7 C 85 % 999,9 hPa 0,0 l/m 0 min 2 min 0 W/m 31,4 km/h (5 Bft)
24.02.2015 06:48 3,7 C 1,7 C 86 % 1000,0 hPa 0,0 l/m 0 min 2 min 0 W/m 23,0 km/h (4 Bft)
24.02.2015 06:50 3,7 C 1,7 C 86 % 1000,0 hPa 0,0 l/m 0 min 2 min 0 W/m 23,0 km/h (4 Bft)
24.02.2015 06:52 3,7 C 1,7 C 86 % 1000,0 hPa 0,0 l/m 0 min 2 min 0 W/m 14,6 km/h (3 Bft)
24.02.2015 06:54 3,7 C 1,7 C 86 % 1000,0 hPa 0,0 l/m 0 min 2 min 0 W/m 16,7 km/h (3 Bft)
24.02.2015 06:56 3,7 C 1,7 C 87 % 1000,0 hPa 0,0 l/m 0 min 2 min 0 W/m 29,3 km/h (5 Bft)
24.02.2015 06:58 3,6 C 1,7 C 87 % 1000,0 hPa 0,0 l/m 0 min 2 min 0 W/m 25,1 km/h (4 Bft)
24.02.2015 07:00 3,6 C 1,7 C 87 % 1000,0 hPa 0,0 l/m 0 min 2 min 0 W/m 29,3 km/h (5 Bft)
24.02.2015 07:02 3,6 C 1,7 C 87 % 1000,0 hPa 0,0 l/m 0 min 2 min 0 W/m 31,4 km/h (5 Bft)
24.02.2015 07:04 3,6 C 1,7 C 87 % 1000,0 hPa 0,0 l/m 0 min 0 min 0 W/m 23,0 km/h (4 Bft)
24.02.2015 07:06 3,5 C 1,7 C 87 % 1000,0 hPa 0,0 l/m 0 min 0 min 0 W/m 29,3 km/h (5 Bft)
24.02.2015 07:08 3,5 C 1,1 C 88 % 999,9 hPa 0,0 l/m 0 min 0 min 0 W/m 25,1 km/h (4 Bft)
24.02.2015 07:10 3,5 C 1,7 C 88 % 1000,0 hPa 0,0 l/m 0 min 0 min 0 W/m 27,2 km/h (4 Bft)
24.02.2015 07:12 3,4 C 1,7 C 88 % 1000,1 hPa 0,0 l/m 0 min 0 min 0 W/m 27,2 km/h (4 Bft)
24.02.2015 07:14 3,4 C 1,7 C 88 % 1000,0 hPa 0,0 l/m 0 min 0 min 0 W/m 31,4 km/h (5 Bft)
24.02.2015 07:16 3,4 C 1,7 C 88 % 1000,2 hPa 0,0 l/m 0 min 0 min 0 W/m 20,9 km/h (4 Bft)
24.02.2015 07:18 3,4 C 1,7 C 88 % 1000,2 hPa 0,0 l/m 0 min 0 min 0 W/m 23,0 km/h (4 Bft)
24.02.2015 07:20 3,4 C 1,7 C 88 % 1000,2 hPa 0,0 l/m 0 min 0 min 0 W/m 16,7 km/h (3 Bft)
24.02.2015 07:22 3,4 C 1,7 C 88 % 1000,3 hPa 0,0 l/m 0 min 0 min 0 W/m 20,9 km/h (4 Bft)
24.02.2015 07:24 3,4 C 1,7 C 88 % 1000,3 hPa 0,0 l/m 0 min 0 min 0 W/m 23,0 km/h (4 Bft)
24.02.2015 07:26 3,4 C 1,7 C 88 % 1000,3 hPa 0,0 l/m 0 min 0 min 0 W/m 31,4 km/h (5 Bft)
24.02.2015 07:28 3,4 C 1,7 C 88 % 1000,3 hPa 0,0 l/m 0 min 0 min 0 W/m 25,1 km/h (4 Bft)
24.02.2015 07:30 3,5 C 1,7 C 88 % 1000,3 hPa 0,0 l/m 0 min 0 min 0 W/m 23,0 km/h (4 Bft)
24.02.2015 07:32 3,5 C 1,7 C 89 % 1000,4 hPa 0,0 l/m 0 min 0 min 0 W/m 20,9 km/h (4 Bft)
24.02.2015 07:34 3,5 C 1,7 C 89 % 1000,3 hPa 0,0 l/m 0 min 0 min 0 W/m 29,3 km/h (5 Bft)
24.02.2015 07:36 3,6 C 1,7 C 89 % 1000,4 hPa 0,0 l/m 0 min 0 min 2 W/m 25,1 km/h (4 Bft)
24.02.2015 07:38 3,6 C 1,7 C 89 % 1000,4 hPa 0,0 l/m 0 min 0 min 5 W/m 33,5 km/h (5 Bft)
24.02.2015 07:40 3,6 C 1,7 C 89 % 1000,4 hPa 0,0 l/m 0 min 0 min 5 W/m 27,2 km/h (4 Bft)
24.02.2015 07:42 3,6 C 1,7 C 89 % 1000,4 hPa 0,0 l/m 0 min 0 min 5 W/m 23,0 km/h (4 Bft)
24.02.2015 07:44 3,6 C 1,7 C 89 % 1000,4 hPa 0,0 l/m 0 min 0 min 7 W/m 29,3 km/h (5 Bft)
24.02.2015 07:46 3,6 C 1,7 C 89 % 1000,4 hPa 0,0 l/m 0 min 0 min 8 W/m 29,3 km/h (5 Bft)
24.02.2015 07:48 3,6 C 1,7 C 89 % 1000,5 hPa 0,0 l/m 0 min 0 min 9 W/m 29,3 km/h (5 Bft)
24.02.2015 07:50 3,6 C 1,7 C 89 % 1000,4 hPa 0,0 l/m 0 min 0 min 11 W/m 29,3 km/h (5 Bft)
24.02.2015 07:52 3,6 C 1,7 C 89 % 1000,4 hPa 0,0 l/m 0 min 0 min 11 W/m 33,5 km/h (5 Bft)
24.02.2015 07:54 3,6 C 1,7 C 89 % 1000,5 hPa 0,0 l/m 0 min 0 min 11 W/m 23,0 km/h (4 Bft)
24.02.2015 07:56 3,6 C 1,7 C 89 % 1000,6 hPa 0,0 l/m 0 min 0 min 12 W/m 18,8 km/h (3 Bft)
24.02.2015 07:58 3,7 C 1,7 C 89 % 1000,6 hPa 0,0 l/m 0 min 0 min 12 W/m 37,7 km/h (5 Bft)
24.02.2015 08:00 3,7 C 1,7 C 89 % 1000,7 hPa 0,0 l/m 0 min 0 min 12 W/m 31,4 km/h (5 Bft)
24.02.2015 08:02 3,7 C 1,7 C 89 % 1000,6 hPa 0,0 l/m 0 min 0 min 12 W/m 29,3 km/h (5 Bft)
24.02.2015 08:04 3,7 C 2,2 C 89 % 1000,7 hPa 0,0 l/m 0 min 0 min 13 W/m 37,7 km/h (5 Bft)
24.02.2015 08:06 3,7 C 2,2 C 89 % 1000,7 hPa 0,0 l/m 0 min 0 min 17 W/m 20,9 km/h (4 Bft)
24.02.2015 08:08 3,7 C 2,2 C 89 % 1000,7 hPa 0,0 l/m 0 min 0 min 23 W/m 23,0 km/h (4 Bft)
24.02.2015 08:10 3,7 C 2,2 C 89 % 1000,7 hPa 0,0 l/m 0 min 0 min 25 W/m 27,2 km/h (4 Bft)
24.02.2015 08:12 3,7 C 2,2 C 89 % 1000,7 hPa 0,0 l/m 0 min 0 min 23 W/m 31,4 km/h (5 Bft)
24.02.2015 08:14 3,7 C 2,2 C 89 % 1000,7 hPa 0,2 l/m 0 min 0 min 25 W/m 25,1 km/h (4 Bft)
24.02.2015 08:16 3,7 C 2,2 C 88 % 1000,6 hPa 0,0 l/m 0 min 0 min 28 W/m 37,7 km/h (5 Bft)
24.02.2015 08:18 3,7 C 2,2 C 88 % 1000,7 hPa 0,0 l/m 0 min 0 min 31 W/m 35,6 km/h (5 Bft)
24.02.2015 08:20 3,8 C 2,2 C 88 % 1000,7 hPa 0,0 l/m 0 min 0 min 39 W/m 31,4 km/h (5 Bft)
24.02.2015 08:22 3,8 C 2,2 C 88 % 1000,8 hPa 0,0 l/m 0 min 0 min 44 W/m 31,4 km/h (5 Bft)
24.02.2015 08:24 3,8 C 2,2 C 88 % 1000,8 hPa 0,0 l/m 0 min 0 min 38 W/m 25,1 km/h (4 Bft)
24.02.2015 08:26 3,8 C 2,2 C 88 % 1000,9 hPa 0,0 l/m 0 min 0 min 32 W/m 23,0 km/h (4 Bft)
24.02.2015 08:28 3,8 C 2,2 C 88 % 1000,9 hPa 0,0 l/m 0 min 0 min 32 W/m 29,3 km/h (5 Bft)
24.02.2015 08:30 3,9 C 2,2 C 88 % 1000,9 hPa 0,0 l/m 0 min 0 min 34 W/m 29,3 km/h (5 Bft)
24.02.2015 08:32 3,9 C 2,8 C 88 % 1001,0 hPa 0,0 l/m 0 min 0 min 49 W/m 27,2 km/h (4 Bft)
24.02.2015 08:34 3,9 C 2,8 C 88 % 1001,1 hPa 0,0 l/m 0 min 0 min 49 W/m 25,1 km/h (4 Bft)
24.02.2015 08:36 3,9 C 2,8 C 88 % 1001,4 hPa 0,0 l/m 0 min 0 min 36 W/m 29,3 km/h (5 Bft)
24.02.2015 08:38 3,9 C 2,8 C 88 % 1001,5 hPa 0,0 l/m 0 min 0 min 44 W/m 14,6 km/h (3 Bft)
24.02.2015 08:40 3,9 C 2,8 C 88 % 1001,4 hPa 0,0 l/m 0 min 0 min 39 W/m 18,8 km/h (3 Bft)
24.02.2015 08:42 4,0 C 2,8 C 88 % 1001,5 hPa 0,0 l/m 0 min 0 min 34 W/m 29,3 km/h (5 Bft)
24.02.2015 08:44 4,0 C 2,8 C 88 % 1001,6 hPa 0,0 l/m 0 min 0 min 40 W/m 43,9 km/h (6 Bft)
24.02.2015 08:46 4,0 C 2,8 C 88 % 1001,5 hPa 0,0 l/m 0 min 0 min 42 W/m 31,4 km/h (5 Bft)
24.02.2015 08:48 4,0 C 2,8 C 88 % 1001,6 hPa 0,0 l/m 0 min 0 min 34 W/m 20,9 km/h (4 Bft)
24.02.2015 08:50 4,0 C 2,8 C 88 % 1001,5 hPa 0,0 l/m 0 min 0 min 32 W/m 29,3 km/h (5 Bft)
24.02.2015 08:52 4,0 C 2,8 C 88 % 1001,7 hPa 0,0 l/m 0 min 0 min 33 W/m 35,6 km/h (5 Bft)
24.02.2015 08:54 4,0 C 2,8 C 88 % 1001,8 hPa 0,0 l/m 0 min 0 min 35 W/m 37,7 km/h (5 Bft)
24.02.2015 08:56 4,0 C 2,8 C 88 % 1001,8 hPa 0,0 l/m 0 min 0 min 31 W/m 31,4 km/h (5 Bft)
24.02.2015 08:58 4,0 C 2,8 C 88 % 1001,8 hPa 0,0 l/m 0 min 0 min 23 W/m 35,6 km/h (5 Bft)
24.02.2015 09:00 4,0 C 2,8 C 88 % 1001,9 hPa 0,0 l/m 0 min 0 min 28 W/m 29,3 km/h (5 Bft)
24.02.2015 09:02 4,0 C 2,8 C 88 % 1002,0 hPa 0,0 l/m 0 min 0 min 34 W/m 33,5 km/h (5 Bft)
24.02.2015 09:04 4,0 C 2,8 C 88 % 1002,0 hPa 0,0 l/m 0 min 0 min 39 W/m 27,2 km/h (4 Bft)
24.02.2015 09:06 4,0 C 2,8 C 88 % 1001,9 hPa 0,0 l/m 0 min 0 min 63 W/m 25,1 km/h (4 Bft)
24.02.2015 09:08 4,0 C 2,8 C 88 % 1001,9 hPa 0,0 l/m 0 min 0 min 96 W/m 35,6 km/h (5 Bft)
24.02.2015 09:10 4,0 C 2,8 C 88 % 1002,0 hPa 0,0 l/m 2 min 0 min 118 W/m 33,5 km/h (5 Bft)
24.02.2015 09:12 4,0 C 3,3 C 88 % 1002,0 hPa 0,0 l/m 2 min 0 min 136 W/m 35,6 km/h (5 Bft)
24.02.2015 09:14 4,0 C 3,3 C 88 % 1002,0 hPa 0,0 l/m 0 min 0 min 116 W/m 29,3 km/h (5 Bft)
24.02.2015 09:16 4,0 C 3,3 C 88 % 1002,1 hPa 0,0 l/m 0 min 0 min 89 W/m 27,2 km/h (4 Bft)
24.02.2015 09:18 4,1 C 2,8 C 88 % 1002,2 hPa 0,0 l/m 0 min 0 min 61 W/m 39,7 km/h (6 Bft)
24.02.2015 09:20 4,1 C 2,8 C 88 % 1002,1 hPa 0,0 l/m 0 min 0 min 72 W/m 29,3 km/h (5 Bft)
24.02.2015 09:22 4,1 C 2,8 C 88 % 1002,3 hPa 0,0 l/m 0 min 0 min 88 W/m 27,2 km/h (4 Bft)
24.02.2015 09:24 4,1 C 2,8 C 88 % 1002,2 hPa 0,0 l/m 0 min 0 min 66 W/m 29,3 km/h (5 Bft)
24.02.2015 09:26 4,1 C 3,3 C 89 % 1002,2 hPa 0,0 l/m 0 min 0 min 96 W/m 27,2 km/h (4 Bft)
24.02.2015 09:28 4,1 C 3,3 C 89 % 1002,3 hPa 0,0 l/m 2 min 0 min 135 W/m 29,3 km/h (5 Bft)
24.02.2015 09:30 4,1 C 3,3 C 89 % 1002,3 hPa 0,0 l/m 0 min 0 min 133 W/m 35,6 km/h (5 Bft)
24.02.2015 09:32 4,1 C 3,3 C 89 % 1002,3 hPa 0,0 l/m 0 min 0 min 94 W/m 33,5 km/h (5 Bft)
24.02.2015 09:34 4,1 C 3,3 C 89 % 1002,3 hPa 0,0 l/m 0 min 0 min 79 W/m 29,3 km/h (5 Bft)
24.02.2015 09:36 4,2 C 3,3 C 88 % 1002,3 hPa 0,0 l/m 0 min 0 min 73 W/m 33,5 km/h (5 Bft)
24.02.2015 09:38 4,2 C 3,3 C 88 % 1002,4 hPa 0,0 l/m 0 min 0 min 58 W/m 23,0 km/h (4 Bft)
24.02.2015 09:40 4,2 C 3,3 C 88 % 1002,3 hPa 0,0 l/m 0 min 0 min 80 W/m 31,4 km/h (5 Bft)
24.02.2015 09:42 4,2 C 3,3 C 88 % 1002,3 hPa 0,0 l/m 0 min 0 min 104 W/m 27,2 km/h (4 Bft)
24.02.2015 09:44 4,2 C 3,3 C 88 % 1002,3 hPa 0,0 l/m 0 min 0 min 81 W/m 23,0 km/h (4 Bft)
24.02.2015 09:46 4,2 C 3,3 C 88 % 1002,3 hPa 0,0 l/m 0 min 0 min 74 W/m 25,1 km/h (4 Bft)
24.02.2015 09:48 4,2 C 3,3 C 88 % 1002,3 hPa 0,0 l/m 0 min 0 min 71 W/m 27,2 km/h (4 Bft)
24.02.2015 09:50 4,3 C 3,3 C 88 % 1002,4 hPa 0,0 l/m 0 min 0 min 79 W/m 18,8 km/h (3 Bft)
24.02.2015 09:52 4,3 C 3,3 C 88 % 1002,4 hPa 0,0 l/m 0 min 0 min 88 W/m 16,7 km/h (3 Bft)
24.02.2015 09:54 4,3 C 3,3 C 88 % 1002,4 hPa 0,0 l/m 0 min 0 min 97 W/m 23,0 km/h (4 Bft)
24.02.2015 09:56 4,3 C 3,9 C 88 % 1002,4 hPa 0,0 l/m 0 min 0 min 98 W/m 29,3 km/h (5 Bft)
24.02.2015 09:58 4,4 C 3,9 C 88 % 1002,5 hPa 0,0 l/m 0 min 0 min 114 W/m 33,5 km/h (5 Bft)
24.02.2015 10:00 4,4 C 3,9 C 88 % 1002,4 hPa 0,0 l/m 0 min 0 min 97 W/m 31,4 km/h (5 Bft)
24.02.2015 10:02 4,4 C 3,9 C 88 % 1002,3 hPa 0,0 l/m 0 min 0 min 75 W/m 27,2 km/h (4 Bft)
24.02.2015 10:04 4,5 C 3,9 C 88 % 1002,4 hPa 0,0 l/m 0 min 0 min 80 W/m 25,1 km/h (4 Bft)
24.02.2015 10:06 4,5 C 3,3 C 88 % 1002,4 hPa 0,0 l/m 0 min 0 min 73 W/m 33,5 km/h (5 Bft)
24.02.2015 10:08 4,6 C 3,9 C 88 % 1002,4 hPa 0,0 l/m 0 min 0 min 76 W/m 29,3 km/h (5 Bft)
24.02.2015 10:10 4,6 C 3,9 C 88 % 1002,3 hPa 0,0 l/m 0 min 0 min 79 W/m 23,0 km/h (4 Bft)
24.02.2015 10:12 4,6 C 3,9 C 88 % 1002,3 hPa 0,0 l/m 0 min 0 min 80 W/m 41,8 km/h (6 Bft)
24.02.2015 10:14 4,6 C 3,9 C 88 % 1002,3 hPa 0,0 l/m 0 min 0 min 113 W/m 27,2 km/h (4 Bft)
24.02.2015 10:16 4,7 C 3,9 C 88 % 1002,3 hPa 0,0 l/m 0 min 0 min 110 W/m 29,3 km/h (5 Bft)
24.02.2015 10:18 4,7 C 4,4 C 88 % 1002,3 hPa 0,0 l/m 0 min 0 min 159 W/m 33,5 km/h (5 Bft)
24.02.2015 10:20 4,8 C 4,4 C 87 % 1002,3 hPa 0,0 l/m 2 min 0 min 216 W/m 31,4 km/h (5 Bft)
24.02.2015 10:22 4,8 C 4,4 C 87 % 1002,3 hPa 0,0 l/m 2 min 0 min 205 W/m 31,4 km/h (5 Bft)
24.02.2015 10:24 4,9 C 4,4 C 87 % 1002,3 hPa 0,0 l/m 0 min 0 min 183 W/m 29,3 km/h (5 Bft)
24.02.2015 10:26 4,9 C 4,4 C 88 % 1002,4 hPa 0,0 l/m 0 min 0 min 125 W/m 27,2 km/h (4 Bft)
24.02.2015 10:28 5,0 C 4,4 C 87 % 1002,3 hPa 0,0 l/m 0 min 0 min 149 W/m 33,5 km/h (5 Bft)
24.02.2015 10:30 5,1 C 4,4 C 87 % 1002,4 hPa 0,0 l/m 0 min 0 min 162 W/m 29,3 km/h (5 Bft)
24.02.2015 10:32 5,1 C 4,4 C 87 % 1002,5 hPa 0,0 l/m 2 min 0 min 204 W/m 33,5 km/h (5 Bft)
24.02.2015 10:34 5,2 C 4,4 C 87 % 1002,4 hPa 0,0 l/m 2 min 0 min 317 W/m 35,6 km/h (5 Bft)
24.02.2015 10:36 5,3 C 5,0 C 87 % 1002,4 hPa 0,0 l/m 2 min 0 min 425 W/m 33,5 km/h (5 Bft)
24.02.2015 10:38 5,3 C 4,4 C 87 % 1002,5 hPa 0,0 l/m 2 min 0 min 235 W/m 46,0 km/h (6 Bft)
24.02.2015 10:40 5,4 C 5,0 C 86 % 1002,4 hPa 0,0 l/m 2 min 0 min 340 W/m 31,4 km/h (5 Bft)
24.02.2015 10:42 5,5 C 5,0 C 86 % 1002,5 hPa 0,0 l/m 2 min 0 min 483 W/m 35,6 km/h (5 Bft)
24.02.2015 10:44 5,6 C 5,0 C 86 % 1002,6 hPa 0,0 l/m 2 min 0 min 483 W/m 31,4 km/h (5 Bft)
24.02.2015 10:46 5,7 C 5,0 C 86 % 1002,5 hPa 0,0 l/m 2 min 0 min 492 W/m 31,4 km/h (5 Bft)
24.02.2015 10:48 5,7 C 5,6 C 86 % 1002,6 hPa 0,0 l/m 2 min 0 min 552 W/m 27,2 km/h (4 Bft)
24.02.2015 10:50 5,9 C 5,6 C 86 % 1002,6 hPa 0,0 l/m 2 min 0 min 557 W/m 27,2 km/h (4 Bft)
24.02.2015 10:52 5,9 C 5,6 C 86 % 1002,6 hPa 0,0 l/m 2 min 0 min 371 W/m 37,7 km/h (5 Bft)
24.02.2015 10:54 6,1 C 5,6 C 85 % 1002,6 hPa 0,0 l/m 2 min 0 min 274 W/m 39,7 km/h (6 Bft)
24.02.2015 10:56 6,1 C 5,6 C 85 % 1002,8 hPa 0,0 l/m 2 min 0 min 243 W/m 41,8 km/h (6 Bft)
24.02.2015 10:58 6,1 C 5,6 C 84 % 1002,8 hPa 0,0 l/m 0 min 0 min 181 W/m 29,3 km/h (5 Bft)
24.02.2015 11:00 6,2 C 5,6 C 84 % 1002,8 hPa 0,0 l/m 0 min 0 min 193 W/m 29,3 km/h (5 Bft)
24.02.2015 11:02 6,2 C 5,6 C 84 % 1002,9 hPa 0,0 l/m 2 min 0 min 218 W/m 31,4 km/h (5 Bft)
24.02.2015 11:04 6,2 C 5,6 C 84 % 1002,8 hPa 0,0 l/m 0 min 0 min 193 W/m 43,9 km/h (6 Bft)
24.02.2015 11:06 6,2 C 5,0 C 83 % 1002,9 hPa 0,0 l/m 0 min 0 min 188 W/m 33,5 km/h (5 Bft)
24.02.2015 11:08 6,2 C 5,0 C 83 % 1002,9 hPa 0,0 l/m 0 min 0 min 180 W/m 31,4 km/h (5 Bft)
24.02.2015 11:10 6,2 C 5,6 C 83 % 1002,9 hPa 0,0 l/m 2 min 0 min 315 W/m 31,4 km/h (5 Bft)
24.02.2015 11:12 6,3 C 5,6 C 83 % 1003,0 hPa 0,0 l/m 2 min 0 min 391 W/m 23,0 km/h (4 Bft)
24.02.2015 11:14 6,4 C 5,6 C 84 % 1003,1 hPa 0,0 l/m 2 min 0 min 529 W/m 27,2 km/h (4 Bft)
24.02.2015 11:16 6,4 C 5,6 C 84 % 1003,1 hPa 0,0 l/m 2 min 0 min 539 W/m 35,6 km/h (5 Bft)
24.02.2015 11:18 6,6 C 6,1 C 84 % 1003,2 hPa 0,0 l/m 2 min 0 min 582 W/m 37,7 km/h (5 Bft)
24.02.2015 11:20 6,7 C 6,1 C 83 % 1003,2 hPa 0,0 l/m 2 min 0 min 581 W/m 35,6 km/h (5 Bft)
24.02.2015 11:22 6,7 C 6,1 C 83 % 1003,2 hPa 0,0 l/m 0 min 0 min 210 W/m 33,5 km/h (5 Bft)
24.02.2015 11:24 6,8 C 6,1 C 82 % 1003,3 hPa 0,0 l/m 2 min 0 min 229 W/m 35,6 km/h (5 Bft)
24.02.2015 11:26 6,8 C 6,1 C 82 % 1003,4 hPa 0,0 l/m 2 min 0 min 266 W/m 35,6 km/h (5 Bft)
24.02.2015 11:28 6,8 C 6,1 C 82 % 1003,4 hPa 0,0 l/m 2 min 0 min 244 W/m 35,6 km/h (5 Bft)
24.02.2015 11:30 6,7 C 5,6 C 82 % 1003,3 hPa 0,0 l/m 2 min 0 min 282 W/m 48,1 km/h (6 Bft)
24.02.2015 11:32 6,7 C 5,6 C 82 % 1003,4 hPa 0,0 l/m 2 min 0 min 264 W/m 35,6 km/h (5 Bft)
24.02.2015 11:34 6,7 C 5,6 C 81 % 1003,4 hPa 0,0 l/m 0 min 0 min 217 W/m 31,4 km/h (5 Bft)
24.02.2015 11:36 6,7 C 5,6 C 81 % 1003,4 hPa 0,0 l/m 0 min 0 min 229 W/m 41,8 km/h (6 Bft)
24.02.2015 11:38 6,7 C 5,6 C 82 % 1003,4 hPa 0,0 l/m 0 min 0 min 192 W/m 23,0 km/h (4 Bft)
24.02.2015 11:40 6,7 C 5,6 C 82 % 1003,4 hPa 0,0 l/m 0 min 0 min 198 W/m 33,5 km/h (5 Bft)
24.02.2015 11:42 6,6 C 5,6 C 82 % 1003,4 hPa 0,0 l/m 0 min 0 min 229 W/m 43,9 km/h (6 Bft)
24.02.2015 11:44 6,6 C 5,6 C 82 % 1003,5 hPa 0,0 l/m 0 min 0 min 222 W/m 35,6 km/h (5 Bft)
24.02.2015 11:46 6,6 C 5,6 C 82 % 1003,5 hPa 0,0 l/m 0 min 0 min 225 W/m 35,6 km/h (5 Bft)
24.02.2015 11:48 6,6 C 5,6 C 82 % 1003,5 hPa 0,0 l/m 0 min 0 min 133 W/m 41,8 km/h (6 Bft)
24.02.2015 11:50 6,6 C 5,6 C 82 % 1003,5 hPa 0,0 l/m 0 min 0 min 104 W/m 31,4 km/h (5 Bft)
24.02.2015 11:52 6,5 C 5,6 C 82 % 1003,5 hPa 0,0 l/m 0 min 0 min 156 W/m 23,0 km/h (4 Bft)
24.02.2015 11:54 6,5 C 5,6 C 82 % 1003,5 hPa 0,0 l/m 0 min 0 min 209 W/m 23,0 km/h (4 Bft)
24.02.2015 11:56 6,6 C 6,1 C 83 % 1003,6 hPa 0,0 l/m 2 min 0 min 298 W/m 31,4 km/h (5 Bft)
24.02.2015 11:58 6,6 C 6,7 C 83 % 1003,7 hPa 0,0 l/m 2 min 0 min 402 W/m 35,6 km/h (5 Bft)
24.02.2015 12:00 6,7 C 6,7 C 83 % 1003,8 hPa 0,0 l/m 2 min 0 min 315 W/m 35,6 km/h (5 Bft)
24.02.2015 12:02 6,7 C 6,7 C 83 % 1003,7 hPa 0,0 l/m 2 min 0 min 272 W/m 35,6 km/h (5 Bft)
24.02.2015 12:06 6,8 C 6,1 C 83 % 1003,8 hPa 0,0 l/m 2 min 0 min 257 W/m 46,0 km/h (6 Bft)
24.02.2015 12:08 6,8 C 6,7 C 83 % 1003,9 hPa 0,0 l/m 2 min 0 min 283 W/m 33,5 km/h (5 Bft)
24.02.2015 12:10 6,8 C 6,7 C 83 % 1004,0 hPa 0,0 l/m 2 min 0 min 267 W/m 29,3 km/h (5 Bft)
24.02.2015 12:12 6,8 C 6,7 C 83 % 1003,9 hPa 0,0 l/m 2 min 0 min 273 W/m 37,7 km/h (5 Bft)
24.02.2015 12:14 6,8 C 6,7 C 83 % 1003,9 hPa 0,0 l/m 0 min 0 min 237 W/m 43,9 km/h (6 Bft)
24.02.2015 12:16 6,8 C 6,7 C 82 % 1003,9 hPa 0,0 l/m 0 min 0 min 224 W/m 39,7 km/h (6 Bft)
24.02.2015 12:18 6,8 C 6,1 C 82 % 1003,9 hPa 0,0 l/m 0 min 0 min 226 W/m 35,6 km/h (5 Bft)
24.02.2015 12:20 6,8 C 6,1 C 82 % 1003,9 hPa 0,0 l/m 0 min 0 min 173 W/m 43,9 km/h (6 Bft)
24.02.2015 12:22 6,8 C 6,1 C 82 % 1004,0 hPa 0,0 l/m 0 min 0 min 156 W/m 37,7 km/h (5 Bft)
24.02.2015 12:24 6,8 C 6,1 C 82 % 1004,0 hPa 0,0 l/m 0 min 0 min 119 W/m 39,7 km/h (6 Bft)
24.02.2015 12:26 6,8 C 5,6 C 82 % 1004,0 hPa 0,0 l/m 0 min 0 min 108 W/m 35,6 km/h (5 Bft)
24.02.2015 12:28 6,7 C 5,6 C 82 % 1004,0 hPa 0,0 l/m 0 min 0 min 108 W/m 31,4 km/h (5 Bft)
24.02.2015 12:30 6,7 C 5,6 C 82 % 1004,0 hPa 0,0 l/m 0 min 0 min 110 W/m 43,9 km/h (6 Bft)
24.02.2015 12:32 6,7 C 5,6 C 82 % 1004,0 hPa 0,0 l/m 0 min 0 min 106 W/m 33,5 km/h (5 Bft)
24.02.2015 12:34 6,7 C 5,6 C 82 % 1004,1 hPa 0,0 l/m 0 min 0 min 93 W/m 29,3 km/h (5 Bft)
24.02.2015 12:36 6,7 C 5,6 C 82 % 1004,1 hPa 0,0 l/m 0 min 0 min 77 W/m 25,1 km/h (4 Bft)
24.02.2015 12:38 6,6 C 5,6 C 83 % 1004,2 hPa 0,0 l/m 0 min 0 min 67 W/m 37,7 km/h (5 Bft)
24.02.2015 12:40 6,6 C 5,6 C 82 % 1004,1 hPa 0,0 l/m 0 min 0 min 67 W/m 29,3 km/h (5 Bft)
24.02.2015 12:42 6,6 C 5,0 C 82 % 1004,1 hPa 0,0 l/m 0 min 0 min 68 W/m 35,6 km/h (5 Bft)
24.02.2015 12:44 6,5 C 5,0 C 82 % 1004,1 hPa 0,0 l/m 0 min 0 min 60 W/m 29,3 km/h (5 Bft)
24.02.2015 12:46 6,5 C 5,0 C 82 % 1004,2 hPa 0,0 l/m 0 min 0 min 48 W/m 31,4 km/h (5 Bft)
24.02.2015 12:48 6,4 C 5,0 C 82 % 1004,2 hPa 0,0 l/m 0 min 0 min 45 W/m 27,2 km/h (4 Bft)
24.02.2015 12:50 6,4 C 5,0 C 82 % 1004,2 hPa 0,0 l/m 0 min 0 min 58 W/m 31,4 km/h (5 Bft)
24.02.2015 12:52 6,4 C 5,0 C 82 % 1004,1 hPa 0,0 l/m 0 min 0 min 64 W/m 33,5 km/h (5 Bft)
24.02.2015 12:54 6,4 C 5,0 C 82 % 1004,1 hPa 0,0 l/m 0 min 0 min 69 W/m 31,4 km/h (5 Bft)
24.02.2015 12:56 6,3 C 5,0 C 83 % 1004,2 hPa 0,0 l/m 0 min 0 min 74 W/m 33,5 km/h (5 Bft)
24.02.2015 12:58 6,3 C 5,0 C 83 % 1004,2 hPa 0,0 l/m 0 min 0 min 81 W/m 46,0 km/h (6 Bft)
24.02.2015 13:00 6,3 C 5,0 C 83 % 1004,2 hPa 0,0 l/m 0 min 0 min 102 W/m 46,0 km/h (6 Bft)
24.02.2015 13:02 6,2 C 5,0 C 83 % 1004,3 hPa 0,0 l/m 0 min 0 min 111 W/m 46,0 km/h (6 Bft)
24.02.2015 13:04 6,2 C 5,0 C 83 % 1004,4 hPa 0,0 l/m 0 min 0 min 117 W/m 39,7 km/h (6 Bft)
24.02.2015 13:06 6,1 C 4,4 C 84 % 1004,4 hPa 0,0 l/m 0 min 0 min 104 W/m 37,7 km/h (5 Bft)
24.02.2015 13:08 6,1 C 4,4 C 84 % 1004,5 hPa 0,0 l/m 0 min 0 min 107 W/m 37,7 km/h (5 Bft)
24.02.2015 13:10 6,1 C 4,4 C 85 % 1004,5 hPa 0,0 l/m 0 min 2 min 115 W/m 35,6 km/h (5 Bft)
24.02.2015 13:12 6,0 C 4,4 C 85 % 1004,5 hPa 0,0 l/m 0 min 2 min 113 W/m 35,6 km/h (5 Bft)
24.02.2015 13:14 5,9 C 3,9 C 86 % 1004,5 hPa 0,0 l/m 0 min 2 min 92 W/m 33,5 km/h (5 Bft)
24.02.2015 13:16 5,9 C 3,9 C 86 % 1004,6 hPa 0,0 l/m 0 min 2 min 98 W/m 31,4 km/h (5 Bft)
24.02.2015 13:18 5,8 C 3,9 C 86 % 1004,7 hPa 0,0 l/m 0 min 2 min 89 W/m 37,7 km/h (5 Bft)
24.02.2015 13:20 5,7 C 3,9 C 87 % 1004,8 hPa 0,0 l/m 0 min 2 min 91 W/m 27,2 km/h (4 Bft)
24.02.2015 13:22 5,7 C 3,9 C 87 % 1004,8 hPa 0,0 l/m 0 min 2 min 80 W/m 23,0 km/h (4 Bft)
24.02.2015 13:24 5,6 C 3,9 C 88 % 1004,8 hPa 0,0 l/m 0 min 2 min 89 W/m 33,5 km/h (5 Bft)
24.02.2015 13:26 5,6 C 3,9 C 88 % 1004,8 hPa 0,0 l/m 0 min 2 min 96 W/m 29,3 km/h (5 Bft)
24.02.2015 13:28 5,5 C 3,9 C 88 % 1004,9 hPa 0,2 l/m 0 min 2 min 115 W/m 29,3 km/h (5 Bft)
24.02.2015 13:30 5,4 C 3,3 C 88 % 1005,0 hPa 0,0 l/m 0 min 2 min 86 W/m 52,3 km/h (7 Bft)
24.02.2015 13:32 5,3 C 3,3 C 89 % 1004,9 hPa 0,0 l/m 0 min 2 min 141 W/m 35,6 km/h (5 Bft)
24.02.2015 13:34 5,2 C 3,9 C 89 % 1005,0 hPa 0,0 l/m 2 min 2 min 292 W/m 48,1 km/h (6 Bft)
24.02.2015 13:36 5,2 C 3,9 C 89 % 1005,0 hPa 0,0 l/m 0 min 2 min 237 W/m 33,5 km/h (5 Bft)
24.02.2015 13:38 5,1 C 3,9 C 89 % 1005,0 hPa 0,0 l/m 0 min 2 min 188 W/m 37,7 km/h (5 Bft)
24.02.2015 13:40 5,1 C 4,4 C 89 % 1005,0 hPa 0,0 l/m 2 min 0 min 240 W/m 31,4 km/h (5 Bft)
24.02.2015 13:42 5,1 C 3,9 C 90 % 1005,0 hPa 0,0 l/m 0 min 0 min 177 W/m 35,6 km/h (5 Bft)
24.02.2015 13:44 5,1 C 3,9 C 90 % 1005,0 hPa 0,0 l/m 0 min 0 min 209 W/m 25,1 km/h (4 Bft)
24.02.2015 13:46 5,1 C 4,4 C 90 % 1005,0 hPa 0,0 l/m 2 min 0 min 283 W/m 33,5 km/h (5 Bft)
24.02.2015 13:48 5,1 C 4,4 C 90 % 1004,9 hPa 0,0 l/m 2 min 0 min 270 W/m 35,6 km/h (5 Bft)
24.02.2015 13:50 5,2 C 4,4 C 90 % 1005,0 hPa 0,0 l/m 2 min 0 min 267 W/m 31,4 km/h (5 Bft)
24.02.2015 13:52 5,2 C 4,4 C 90 % 1005,2 hPa 0,0 l/m 0 min 0 min 210 W/m 35,6 km/h (5 Bft)
24.02.2015 13:54 5,2 C 4,4 C 90 % 1005,2 hPa 0,0 l/m 0 min 0 min 170 W/m 37,7 km/h (5 Bft)
24.02.2015 13:56 5,2 C 4,4 C 90 % 1005,3 hPa 0,0 l/m 0 min 0 min 204 W/m 43,9 km/h (6 Bft)
24.02.2015 13:58 5,2 C 4,4 C 90 % 1005,3 hPa 0,0 l/m 0 min 0 min 198 W/m 31,4 km/h (5 Bft)
24.02.2015 14:00 5,3 C 4,4 C 90 % 1005,4 hPa 0,0 l/m 2 min 0 min 236 W/m 29,3 km/h (5 Bft)
24.02.2015 14:02 5,3 C 5,0 C 90 % 1005,3 hPa 0,0 l/m 2 min 0 min 290 W/m 35,6 km/h (5 Bft)
24.02.2015 14:04 5,4 C 5,0 C 90 % 1005,4 hPa 0,0 l/m 0 min 0 min 218 W/m 20,9 km/h (4 Bft)
24.02.2015 14:06 5,4 C 4,4 C 90 % 1005,4 hPa 0,0 l/m 0 min 0 min 159 W/m 41,8 km/h (6 Bft)
24.02.2015 14:08 5,5 C 4,4 C 90 % 1005,5 hPa 0,0 l/m 0 min 0 min 179 W/m 33,5 km/h (5 Bft)
24.02.2015 14:10 5,5 C 4,4 C 90 % 1005,5 hPa 0,0 l/m 0 min 0 min 134 W/m 37,7 km/h (5 Bft)
24.02.2015 14:12 5,5 C 4,4 C 90 % 1005,6 hPa 0,0 l/m 0 min 0 min 129 W/m 31,4 km/h (5 Bft)
24.02.2015 14:14 5,5 C 4,4 C 89 % 1005,6 hPa 0,0 l/m 0 min 0 min 134 W/m 27,2 km/h (4 Bft)
24.02.2015 14:16 5,5 C 4,4 C 90 % 1005,7 hPa 0,0 l/m 0 min 0 min 116 W/m 29,3 km/h (5 Bft)
24.02.2015 14:18 5,5 C 4,4 C 90 % 1005,8 hPa 0,0 l/m 0 min 0 min 113 W/m 31,4 km/h (5 Bft)
24.02.2015 14:20 5,5 C 4,4 C 89 % 1005,8 hPa 0,0 l/m 0 min 0 min 110 W/m 25,1 km/h (4 Bft)
24.02.2015 14:22 5,5 C 4,4 C 89 % 1005,6 hPa 0,0 l/m 0 min 0 min 129 W/m 18,8 km/h (3 Bft)
24.02.2015 14:24 5,6 C 5,0 C 89 % 1005,7 hPa 0,0 l/m 0 min 0 min 151 W/m 29,3 km/h (5 Bft)
24.02.2015 14:26 5,6 C 5,0 C 90 % 1005,8 hPa 0,0 l/m 0 min 0 min 154 W/m 35,6 km/h (5 Bft)
24.02.2015 14:28 5,6 C 5,0 C 89 % 1005,9 hPa 0,0 l/m 0 min 0 min 135 W/m 31,4 km/h (5 Bft)
24.02.2015 14:30 5,7 C 5,0 C 89 % 1005,9 hPa 0,0 l/m 0 min 0 min 151 W/m 35,6 km/h (5 Bft)
24.02.2015 14:32 5,7 C 5,0 C 89 % 1006,0 hPa 0,0 l/m 0 min 0 min 152 W/m 33,5 km/h (5 Bft)
24.02.2015 14:34 5,7 C 5,0 C 89 % 1005,9 hPa 0,0 l/m 0 min 0 min 148 W/m 35,6 km/h (5 Bft)
24.02.2015 14:36 5,7 C 5,0 C 89 % 1006,0 hPa 0,0 l/m 0 min 0 min 145 W/m 16,7 km/h (3 Bft)
24.02.2015 14:38 5,7 C 5,0 C 89 % 1006,0 hPa 0,0 l/m 0 min 0 min 131 W/m 23,0 km/h (4 Bft)
24.02.2015 14:40 5,8 C 5,0 C 89 % 1006,0 hPa 0,0 l/m 0 min 0 min 150 W/m 27,2 km/h (4 Bft)
24.02.2015 14:42 5,8 C 5,0 C 89 % 1006,0 hPa 0,0 l/m 0 min 0 min 129 W/m 25,1 km/h (4 Bft)
24.02.2015 14:44 5,8 C 5,0 C 89 % 1006,0 hPa 0,0 l/m 0 min 0 min 119 W/m 16,7 km/h (3 Bft)
24.02.2015 14:46 5,8 C 5,0 C 89 % 1006,1 hPa 0,0 l/m 0 min 0 min 114 W/m 25,1 km/h (4 Bft)
24.02.2015 14:48 5,9 C 5,0 C 89 % 1006,0 hPa 0,0 l/m 0 min 0 min 139 W/m 20,9 km/h (4 Bft)
24.02.2015 14:50 5,9 C 5,6 C 89 % 1006,1 hPa 0,0 l/m 0 min 0 min 165 W/m 12,6 km/h (3 Bft)
24.02.2015 14:52 5,9 C 5,6 C 89 % 1006,1 hPa 0,0 l/m 0 min 0 min 170 W/m 20,9 km/h (4 Bft)
24.02.2015 14:54 5,9 C 5,6 C 89 % 1006,1 hPa 0,0 l/m 0 min 0 min 166 W/m 27,2 km/h (4 Bft)
24.02.2015 14:56 6,0 C 5,6 C 89 % 1006,1 hPa 0,0 l/m 0 min 0 min 177 W/m 23,0 km/h (4 Bft)
24.02.2015 14:58 6,0 C 5,6 C 89 % 1006,1 hPa 0,0 l/m 2 min 0 min 204 W/m 20,9 km/h (4 Bft)
24.02.2015 15:00 6,1 C 5,6 C 89 % 1006,1 hPa 0,0 l/m 2 min 0 min 276 W/m 25,1 km/h (4 Bft)
24.02.2015 15:02 6,2 C 6,1 C 89 % 1006,1 hPa 0,0 l/m 2 min 0 min 399 W/m 14,6 km/h (3 Bft)
24.02.2015 15:04 6,3 C 6,1 C 89 % 1006,1 hPa 0,0 l/m 2 min 0 min 373 W/m 23,0 km/h (4 Bft)
24.02.2015 15:06 6,4 C 6,1 C 89 % 1006,1 hPa 0,0 l/m 2 min 0 min 351 W/m 23,0 km/h (4 Bft)
24.02.2015 15:08 6,5 C 6,1 C 89 % 1006,2 hPa 0,0 l/m 2 min 0 min 309 W/m 25,1 km/h (4 Bft)
24.02.2015 15:10 6,6 C 6,7 C 88 % 1006,2 hPa 0,0 l/m 2 min 0 min 389 W/m 23,0 km/h (4 Bft)
24.02.2015 15:12 6,7 C 6,7 C 88 % 1006,2 hPa 0,0 l/m 2 min 0 min 422 W/m 20,9 km/h (4 Bft)
24.02.2015 15:14 6,8 C 6,7 C 88 % 1006,3 hPa 0,0 l/m 2 min 0 min 429 W/m 18,8 km/h (3 Bft)
24.02.2015 15:16 6,9 C 6,7 C 87 % 1006,3 hPa 0,0 l/m 2 min 0 min 377 W/m 16,7 km/h (3 Bft)
24.02.2015 15:18 7,1 C 6,7 C 87 % 1006,5 hPa 0,0 l/m 2 min 0 min 372 W/m 25,1 km/h (4 Bft)
24.02.2015 15:20 7,2 C 6,1 C 87 % 1006,5 hPa 0,0 l/m 2 min 0 min 290 W/m 20,9 km/h (4 Bft)
24.02.2015 15:22 7,2 C 6,1 C 86 % 1006,5 hPa 0,0 l/m 2 min 0 min 184 W/m 25,1 km/h (4 Bft)
24.02.2015 15:24 7,3 C 6,1 C 85 % 1006,5 hPa 0,0 l/m 2 min 0 min 360 W/m 23,0 km/h (4 Bft)
24.02.2015 15:26 7,3 C 6,1 C 85 % 1006,5 hPa 0,0 l/m 0 min 0 min 142 W/m 20,9 km/h (4 Bft)
24.02.2015 15:28 7,3 C 6,1 C 84 % 1006,6 hPa 0,0 l/m 0 min 0 min 98 W/m 20,9 km/h (4 Bft)
24.02.2015 15:30 7,3 C 5,6 C 84 % 1006,6 hPa 0,0 l/m 0 min 0 min 83 W/m 23,0 km/h (4 Bft)
24.02.2015 15:32 7,2 C 5,6 C 84 % 1006,6 hPa 0,0 l/m 0 min 0 min 96 W/m 27,2 km/h (4 Bft)
24.02.2015 15:34 7,2 C 5,6 C 84 % 1006,6 hPa 0,0 l/m 0 min 0 min 97 W/m 25,1 km/h (4 Bft)
24.02.2015 15:36 7,2 C 5,6 C 83 % 1006,6 hPa 0,0 l/m 0 min 0 min 122 W/m 23,0 km/h (4 Bft)
24.02.2015 15:38 7,2 C 6,1 C 83 % 1006,6 hPa 0,0 l/m 0 min 0 min 150 W/m 14,6 km/h (3 Bft)
24.02.2015 15:40 7,2 C 6,1 C 83 % 1006,7 hPa 0,0 l/m 0 min 0 min 127 W/m 20,9 km/h (4 Bft)
24.02.2015 15:42 7,1 C 5,6 C 83 % 1006,6 hPa 0,0 l/m 0 min 0 min 100 W/m 25,1 km/h (4 Bft)
24.02.2015 15:44 7,1 C 5,6 C 83 % 1006,6 hPa 0,0 l/m 0 min 0 min 101 W/m 25,1 km/h (4 Bft)
24.02.2015 15:46 7,1 C 6,1 C 83 % 1006,5 hPa 0,0 l/m 0 min 0 min 145 W/m 29,3 km/h (5 Bft)
24.02.2015 15:48 7,1 C 6,1 C 83 % 1006,6 hPa 0,0 l/m 2 min 0 min 185 W/m 29,3 km/h (5 Bft)
24.02.2015 15:50 7,1 C 6,7 C 83 % 1006,7 hPa 0,0 l/m 2 min 0 min 313 W/m 27,2 km/h (4 Bft)
24.02.2015 15:52 7,1 C 6,7 C 83 % 1006,7 hPa 0,0 l/m 2 min 0 min 186 W/m 25,1 km/h (4 Bft)
24.02.2015 15:54 7,2 C 6,1 C 83 % 1006,7 hPa 0,0 l/m 0 min 0 min 101 W/m 23,0 km/h (4 Bft)
24.02.2015 15:56 7,2 C 6,1 C 83 % 1006,7 hPa 0,0 l/m 0 min 0 min 105 W/m 31,4 km/h (5 Bft)
24.02.2015 15:58 7,2 C 6,1 C 83 % 1006,7 hPa 0,0 l/m 0 min 0 min 99 W/m 23,0 km/h (4 Bft)
24.02.2015 16:00 7,2 C 6,1 C 83 % 1006,7 hPa 0,0 l/m 0 min 0 min 97 W/m 25,1 km/h (4 Bft)
24.02.2015 16:02 7,2 C 6,1 C 83 % 1006,7 hPa 0,0 l/m 0 min 0 min 91 W/m 23,0 km/h (4 Bft)
24.02.2015 16:04 7,2 C 6,1 C 83 % 1006,7 hPa 0,0 l/m 0 min 0 min 95 W/m 20,9 km/h (4 Bft)
24.02.2015 16:06 7,1 C 6,1 C 83 % 1006,9 hPa 0,0 l/m 0 min 0 min 90 W/m 23,0 km/h (4 Bft)
24.02.2015 16:08 7,1 C 6,1 C 83 % 1006,8 hPa 0,0 l/m 0 min 0 min 91 W/m 31,4 km/h (5 Bft)
24.02.2015 16:10 7,1 C 6,1 C 83 % 1006,9 hPa 0,0 l/m 0 min 0 min 82 W/m 20,9 km/h (4 Bft)
24.02.2015 16:12 7,1 C 6,1 C 83 % 1007,0 hPa 0,0 l/m 0 min 0 min 70 W/m 23,0 km/h (4 Bft)
24.02.2015 16:14 7,1 C 5,6 C 83 % 1007,0 hPa 0,0 l/m 0 min 0 min 52 W/m 29,3 km/h (5 Bft)
24.02.2015 16:16 7,1 C 5,6 C 83 % 1007,0 hPa 0,0 l/m 0 min 0 min 63 W/m 25,1 km/h (4 Bft)
24.02.2015 16:18 7,1 C 5,6 C 83 % 1007,0 hPa 0,0 l/m 0 min 0 min 108 W/m 25,1 km/h (4 Bft)
24.02.2015 16:20 7,1 C 6,1 C 83 % 1007,1 hPa 0,0 l/m 2 min 0 min 145 W/m 29,3 km/h (5 Bft)
24.02.2015 16:22 7,1 C 5,6 C 83 % 1007,1 hPa 0,0 l/m 2 min 0 min 151 W/m 23,0 km/h (4 Bft)
24.02.2015 16:24 7,1 C 5,6 C 83 % 1007,2 hPa 0,0 l/m 2 min 0 min 166 W/m 23,0 km/h (4 Bft)
24.02.2015 16:26 7,1 C 5,6 C 83 % 1007,2 hPa 0,0 l/m 0 min 0 min 90 W/m 20,9 km/h (4 Bft)
24.02.2015 16:28 7,1 C 5,6 C 83 % 1007,3 hPa 0,0 l/m 0 min 0 min 89 W/m 20,9 km/h (4 Bft)
24.02.2015 16:30 7,1 C 5,6 C 83 % 1007,3 hPa 0,0 l/m 0 min 0 min 78 W/m 16,7 km/h (3 Bft)
24.02.2015 16:32 7,1 C 5,6 C 83 % 1007,3 hPa 0,0 l/m 0 min 0 min 63 W/m 23,0 km/h (4 Bft)
24.02.2015 16:34 7,1 C 5,6 C 83 % 1007,3 hPa 0,0 l/m 0 min 0 min 37 W/m 18,8 km/h (3 Bft)
24.02.2015 16:36 7,1 C 5,6 C 83 % 1007,4 hPa 0,0 l/m 0 min 0 min 32 W/m 10,5 km/h (2 Bft)
24.02.2015 16:38 7,1 C 5,6 C 83 % 1007,4 hPa 0,0 l/m 0 min 0 min 26 W/m 12,6 km/h (3 Bft)
24.02.2015 16:40 7,1 C 5,6 C 83 % 1007,5 hPa 0,0 l/m 0 min 0 min 25 W/m 12,6 km/h (3 Bft)
24.02.2015 16:42 7,1 C 5,6 C 83 % 1007,5 hPa 0,0 l/m 0 min 0 min 25 W/m 16,7 km/h (3 Bft)
24.02.2015 16:44 7,0 C 5,6 C 83 % 1007,5 hPa 0,0 l/m 0 min 0 min 21 W/m 16,7 km/h (3 Bft)
24.02.2015 16:46 7,0 C 5,6 C 83 % 1007,6 hPa 0,0 l/m 0 min 0 min 17 W/m 12,6 km/h (3 Bft)
24.02.2015 16:48 6,9 C 5,6 C 83 % 1007,7 hPa 0,0 l/m 0 min 2 min 20 W/m 14,6 km/h (3 Bft)
24.02.2015 16:50 6,9 C 5,0 C 83 % 1007,7 hPa 0,0 l/m 0 min 2 min 27 W/m 16,7 km/h (3 Bft)
24.02.2015 16:52 6,9 C 5,0 C 84 % 1007,8 hPa 0,0 l/m 0 min 2 min 40 W/m 16,7 km/h (3 Bft)
24.02.2015 16:54 6,9 C 5,0 C 84 % 1007,8 hPa 0,0 l/m 0 min 2 min 58 W/m 16,7 km/h (3 Bft)
24.02.2015 16:56 6,9 C 5,0 C 84 % 1007,7 hPa 0,0 l/m 0 min 2 min 79 W/m 16,7 km/h (3 Bft)
24.02.2015 16:58 6,9 C 5,0 C 84 % 1007,9 hPa 0,0 l/m 0 min 0 min 76 W/m 14,6 km/h (3 Bft)
24.02.2015 17:00 6,9 C 5,0 C 84 % 1007,9 hPa 0,0 l/m 0 min 0 min 66 W/m 16,7 km/h (3 Bft)
24.02.2015 17:02 6,9 C 5,0 C 85 % 1007,9 hPa 0,0 l/m 2 min 0 min 74 W/m 10,5 km/h (2 Bft)
24.02.2015 17:04 6,9 C 5,0 C 85 % 1008,0 hPa 0,0 l/m 2 min 0 min 80 W/m 18,8 km/h (3 Bft)
24.02.2015 17:06 6,9 C 5,0 C 85 % 1007,9 hPa 0,0 l/m 0 min 0 min 66 W/m 16,7 km/h (3 Bft)
24.02.2015 17:08 6,9 C 5,0 C 85 % 1008,0 hPa 0,0 l/m 0 min 0 min 55 W/m 16,7 km/h (3 Bft)
24.02.2015 17:10 6,9 C 5,0 C 85 % 1008,0 hPa 0,0 l/m 0 min 0 min 54 W/m 14,6 km/h (3 Bft)
24.02.2015 17:12 6,9 C 5,0 C 85 % 1008,1 hPa 0,0 l/m 0 min 0 min 57 W/m 14,6 km/h (3 Bft)
24.02.2015 17:14 6,9 C 5,0 C 85 % 1008,2 hPa 0,0 l/m 0 min 0 min 54 W/m 16,7 km/h (3 Bft)
24.02.2015 17:16 6,9 C 5,0 C 85 % 1008,2 hPa 0,0 l/m 0 min 0 min 47 W/m 12,6 km/h (3 Bft)
24.02.2015 17:18 6,9 C 5,0 C 85 % 1008,2 hPa 0,0 l/m 0 min 0 min 51 W/m 14,6 km/h (3 Bft)
24.02.2015 17:20 6,9 C 5,0 C 86 % 1008,3 hPa 0,0 l/m 0 min 0 min 45 W/m 12,6 km/h (3 Bft)
24.02.2015 17:22 6,9 C 5,0 C 86 % 1008,3 hPa 0,0 l/m 0 min 0 min 29 W/m 20,9 km/h (4 Bft)
24.02.2015 17:24 6,9 C 5,0 C 85 % 1008,3 hPa 0,0 l/m 0 min 0 min 30 W/m 20,9 km/h (4 Bft)
24.02.2015 17:26 6,9 C 5,6 C 85 % 1008,4 hPa 0,0 l/m 0 min 0 min 40 W/m 25,1 km/h (4 Bft)
24.02.2015 17:28 6,9 C 5,6 C 85 % 1008,3 hPa 0,0 l/m 2 min 0 min 47 W/m 25,1 km/h (4 Bft)
24.02.2015 17:30 6,9 C 5,6 C 85 % 1008,4 hPa 0,0 l/m 2 min 0 min 44 W/m 14,6 km/h (3 Bft)
24.02.2015 17:32 6,9 C 5,0 C 85 % 1008,5 hPa 0,0 l/m 2 min 0 min 42 W/m 25,1 km/h (4 Bft)
24.02.2015 17:34 6,9 C 5,0 C 85 % 1008,5 hPa 0,0 l/m 2 min 0 min 41 W/m 27,2 km/h (4 Bft)
24.02.2015 17:36 6,9 C 5,0 C 85 % 1008,5 hPa 0,0 l/m 2 min 0 min 36 W/m 23,0 km/h (4 Bft)
24.02.2015 17:38 6,8 C 5,0 C 84 % 1008,6 hPa 0,0 l/m 2 min 0 min 30 W/m 23,0 km/h (4 Bft)
24.02.2015 17:40 6,8 C 5,0 C 84 % 1008,5 hPa 0,0 l/m 0 min 0 min 24 W/m 27,2 km/h (4 Bft)
24.02.2015 17:42 6,8 C 5,0 C 84 % 1008,6 hPa 0,0 l/m 0 min 0 min 20 W/m 12,6 km/h (3 Bft)
24.02.2015 17:44 6,8 C 5,0 C 84 % 1008,6 hPa 0,0 l/m 0 min 0 min 18 W/m 12,6 km/h (3 Bft)
24.02.2015 17:46 6,8 C 4,4 C 84 % 1008,7 hPa 0,0 l/m 0 min 0 min 13 W/m 14,6 km/h (3 Bft)
24.02.2015 17:48 6,8 C 4,4 C 84 % 1008,8 hPa 0,0 l/m 0 min 0 min 11 W/m 16,7 km/h (3 Bft)
24.02.2015 17:50 6,7 C 4,4 C 84 % 1008,8 hPa 0,0 l/m 0 min 0 min 11 W/m 14,6 km/h (3 Bft)
24.02.2015 17:52 6,7 C 4,4 C 84 % 1008,8 hPa 0,0 l/m 2 min 0 min 11 W/m 10,5 km/h (2 Bft)
24.02.2015 17:54 6,7 C 4,4 C 84 % 1008,9 hPa 0,0 l/m 0 min 0 min 9 W/m 10,5 km/h (2 Bft)
24.02.2015 17:56 6,6 C 4,4 C 84 % 1008,9 hPa 0,0 l/m 0 min 0 min 9 W/m 8,4 km/h (2 Bft)
24.02.2015 17:58 6,6 C 3,9 C 84 % 1009,0 hPa 0,0 l/m 0 min 0 min 8 W/m 8,4 km/h (2 Bft)
24.02.2015 18:00 6,6 C 3,9 C 84 % 1009,0 hPa 0,0 l/m 0 min 0 min 7 W/m 12,6 km/h (3 Bft)
24.02.2015 18:02 6,6 C 3,9 C 84 % 1009,1 hPa 0,0 l/m 0 min 0 min 7 W/m 12,6 km/h (3 Bft)
24.02.2015 18:06 6,4 C 3,9 C 84 % 1009,1 hPa 0,0 l/m 0 min 0 min 5 W/m 14,6 km/h (3 Bft)
24.02.2015 18:08 6,4 C 3,9 C 84 % 1009,1 hPa 0,0 l/m 0 min 0 min 5 W/m 8,4 km/h (2 Bft)
24.02.2015 18:10 6,4 C 3,9 C 85 % 1009,2 hPa 0,0 l/m 0 min 0 min 5 W/m 10,5 km/h (2 Bft)
24.02.2015 18:12 6,4 C 3,9 C 85 % 1009,2 hPa 0,0 l/m 0 min 0 min 0 W/m 8,4 km/h (2 Bft)
24.02.2015 18:14 6,4 C 3,9 C 85 % 1009,2 hPa 0,0 l/m 0 min 0 min 0 W/m 6,3 km/h (2 Bft)
24.02.2015 18:16 6,3 C 3,3 C 85 % 1009,2 hPa 0,0 l/m 0 min 0 min 0 W/m 8,4 km/h (2 Bft)
24.02.2015 18:18 6,3 C 3,3 C 85 % 1009,3 hPa 0,0 l/m 0 min 0 min 0 W/m 8,4 km/h (2 Bft)
24.02.2015 18:20 6,2 C 3,3 C 85 % 1009,3 hPa 0,0 l/m 0 min 0 min 0 W/m 6,3 km/h (2 Bft)
24.02.2015 18:22 6,2 C 3,3 C 85 % 1009,4 hPa 0,0 l/m 0 min 0 min 0 W/m 8,4 km/h (2 Bft)
24.02.2015 18:24 6,2 C 3,3 C 85 % 1009,4 hPa 0,0 l/m 0 min 0 min 0 W/m 8,4 km/h (2 Bft)
24.02.2015 18:26 6,1 C 3,3 C 85 % 1009,4 hPa 0,0 l/m 0 min 0 min 0 W/m 12,6 km/h (3 Bft)
24.02.2015 18:28 6,1 C 3,3 C 85 % 1009,4 hPa 0,0 l/m 0 min 0 min 0 W/m 14,6 km/h (3 Bft)
24.02.2015 18:30 6,1 C 3,3 C 85 % 1009,5 hPa 0,0 l/m 0 min 0 min 0 W/m 8,4 km/h (2 Bft)
24.02.2015 18:32 6,0 C 3,3 C 85 % 1009,6 hPa 0,0 l/m 0 min 0 min 0 W/m 14,6 km/h (3 Bft)
24.02.2015 18:34 6,0 C 3,3 C 85 % 1009,6 hPa 0,0 l/m 0 min 0 min 0 W/m 10,5 km/h (2 Bft)
24.02.2015 18:36 5,9 C 3,3 C 85 % 1009,7 hPa 0,0 l/m 0 min 0 min 0 W/m 8,4 km/h (2 Bft)
24.02.2015 18:38 5,9 C 3,3 C 85 % 1009,8 hPa 0,0 l/m 0 min 0 min 0 W/m 10,5 km/h (2 Bft)
24.02.2015 18:40 5,8 C 3,3 C 85 % 1009,8 hPa 0,0 l/m 0 min 0 min 0 W/m 10,5 km/h (2 Bft)
24.02.2015 18:42 5,8 C 3,3 C 86 % 1009,9 hPa 0,0 l/m 0 min 0 min 0 W/m 12,6 km/h (3 Bft)
24.02.2015 18:44 5,8 C 2,8 C 86 % 1010,0 hPa 0,0 l/m 0 min 0 min 0 W/m 10,5 km/h (2 Bft)
24.02.2015 18:46 5,7 C 3,3 C 86 % 1010,0 hPa 0,0 l/m 0 min 0 min 0 W/m 12,6 km/h (3 Bft)
24.02.2015 18:48 5,7 C 3,3 C 86 % 1010,1 hPa 0,0 l/m 0 min 0 min 0 W/m 12,6 km/h (3 Bft)
24.02.2015 18:50 5,7 C 3,3 C 86 % 1010,2 hPa 0,0 l/m 0 min 0 min 0 W/m 10,5 km/h (2 Bft)
24.02.2015 18:52 5,6 C 2,8 C 86 % 1010,2 hPa 0,0 l/m 0 min 0 min 0 W/m 10,5 km/h (2 Bft)
24.02.2015 18:54 5,6 C 2,8 C 86 % 1010,2 hPa 0,0 l/m 0 min 0 min 0 W/m 8,4 km/h (2 Bft)
24.02.2015 18:56 5,6 C 2,8 C 86 % 1010,3 hPa 0,0 l/m 0 min 0 min 0 W/m 8,4 km/h (2 Bft)
24.02.2015 18:58 5,6 C 2,8 C 86 % 1010,3 hPa 0,0 l/m 0 min 0 min 0 W/m 8,4 km/h (2 Bft)
24.02.2015 19:00 5,5 C 2,8 C 87 % 1010,5 hPa 0,0 l/m 0 min 0 min 0 W/m 8,4 km/h (2 Bft)
24.02.2015 19:02 5,5 C 2,8 C 87 % 1010,5 hPa 0,0 l/m 0 min 0 min 0 W/m 8,4 km/h (2 Bft)
24.02.2015 19:04 5,4 C 2,8 C 87 % 1010,5 hPa 0,0 l/m 0 min 0 min 0 W/m 8,4 km/h (2 Bft)
24.02.2015 19:06 5,4 C 2,8 C 86 % 1010,6 hPa 0,0 l/m 0 min 0 min 0 W/m 8,4 km/h (2 Bft)
24.02.2015 19:08 5,4 C 2,8 C 86 % 1010,5 hPa 0,0 l/m 0 min 0 min 0 W/m 8,4 km/h (2 Bft)
24.02.2015 19:10 5,3 C 2,8 C 86 % 1010,6 hPa 0,0 l/m 0 min 0 min 0 W/m 10,5 km/h (2 Bft)
24.02.2015 19:12 5,3 C 2,8 C 87 % 1010,6 hPa 0,0 l/m 0 min 0 min 0 W/m 12,6 km/h (3 Bft)
24.02.2015 19:14 5,3 C 2,8 C 87 % 1010,7 hPa 0,0 l/m 0 min 0 min 0 W/m 10,5 km/h (2 Bft)
24.02.2015 19:16 5,2 C 2,8 C 87 % 1010,7 hPa 0,0 l/m 0 min 0 min 0 W/m 12,6 km/h (3 Bft)
24.02.2015 19:18 5,2 C 2,8 C 87 % 1010,8 hPa 0,0 l/m 0 min 0 min 0 W/m 10,5 km/h (2 Bft)
24.02.2015 19:20 5,2 C 2,8 C 87 % 1010,8 hPa 0,0 l/m 0 min 0 min 0 W/m 12,6 km/h (3 Bft)
24.02.2015 19:22 5,2 C 2,8 C 87 % 1010,9 hPa 0,0 l/m 0 min 0 min 0 W/m 14,6 km/h (3 Bft)
24.02.2015 19:24 5,2 C 2,8 C 87 % 1010,9 hPa 0,0 l/m 0 min 0 min 0 W/m 12,6 km/h (3 Bft)
24.02.2015 19:26 5,1 C 2,8 C 87 % 1011,0 hPa 0,0 l/m 0 min 0 min 0 W/m 12,6 km/h (3 Bft)
24.02.2015 19:28 5,1 C 2,8 C 87 % 1011,0 hPa 0,0 l/m 0 min 0 min 0 W/m 10,5 km/h (2 Bft)
24.02.2015 19:30 5,1 C 2,8 C 88 % 1011,0 hPa 0,0 l/m 0 min 0 min 0 W/m 12,6 km/h (3 Bft)
24.02.2015 19:32 5,1 C 2,8 C 88 % 1011,0 hPa 0,0 l/m 0 min 0 min 0 W/m 8,4 km/h (2 Bft)
24.02.2015 19:34 5,0 C 2,8 C 88 % 1011,0 hPa 0,0 l/m 0 min 0 min 0 W/m 8,4 km/h (2 Bft)
24.02.2015 19:36 5,0 C 2,8 C 88 % 1011,0 hPa 0,0 l/m 0 min 0 min 0 W/m 10,5 km/h (2 Bft)
24.02.2015 19:38 5,0 C 2,8 C 88 % 1011,0 hPa 0,0 l/m 0 min 0 min 0 W/m 10,5 km/h (2 Bft)
24.02.2015 19:40 5,0 C 2,8 C 88 % 1011,1 hPa 0,0 l/m 0 min 0 min 0 W/m 12,6 km/h (3 Bft)
24.02.2015 19:42 4,9 C 2,8 C 88 % 1011,1 hPa 0,0 l/m 0 min 0 min 0 W/m 12,6 km/h (3 Bft)
24.02.2015 19:44 4,9 C 2,8 C 88 % 1011,1 hPa 0,0 l/m 0 min 0 min 0 W/m 10,5 km/h (2 Bft)
24.02.2015 19:46 4,9 C 2,8 C 88 % 1011,1 hPa 0,0 l/m 0 min 0 min 0 W/m 10,5 km/h (2 Bft)
24.02.2015 19:48 4,9 C 2,8 C 88 % 1011,1 hPa 0,0 l/m 0 min 0 min 0 W/m 8,4 km/h (2 Bft)
24.02.2015 19:50 4,9 C 2,8 C 88 % 1011,2 hPa 0,0 l/m 0 min 0 min 0 W/m 8,4 km/h (2 Bft)
24.02.2015 19:52 4,8 C 2,8 C 88 % 1011,3 hPa 0,0 l/m 0 min 0 min 0 W/m 8,4 km/h (2 Bft)
24.02.2015 19:54 4,8 C 2,8 C 88 % 1011,3 hPa 0,0 l/m 0 min 0 min 0 W/m 10,5 km/h (2 Bft)
24.02.2015 19:56 4,8 C 2,8 C 88 % 1011,3 hPa 0,0 l/m 0 min 0 min 0 W/m 10,5 km/h (2 Bft)
24.02.2015 19:58 4,8 C 2,2 C 88 % 1011,3 hPa 0,0 l/m 0 min 0 min 0 W/m 10,5 km/h (2 Bft)
24.02.2015 20:00 4,8 C 2,2 C 88 % 1011,4 hPa 0,0 l/m 0 min 0 min 0 W/m 8,4 km/h (2 Bft)
24.02.2015 20:02 4,7 C 2,8 C 88 % 1011,4 hPa 0,0 l/m 0 min 0 min 0 W/m 14,6 km/h (3 Bft)
24.02.2015 20:04 4,7 C 2,8 C 88 % 1011,4 hPa 0,0 l/m 0 min 0 min 0 W/m 14,6 km/h (3 Bft)
24.02.2015 20:06 4,7 C 2,2 C 88 % 1011,4 hPa 0,0 l/m 0 min 0 min 0 W/m 10,5 km/h (2 Bft)
24.02.2015 20:08 4,7 C 2,8 C 89 % 1011,5 hPa 0,0 l/m 0 min 0 min 0 W/m 14,6 km/h (3 Bft)
24.02.2015 20:10 4,7 C 2,8 C 89 % 1011,5 hPa 0,0 l/m 0 min 0 min 0 W/m 10,5 km/h (2 Bft)
24.02.2015 20:12 4,7 C 2,8 C 89 % 1011,6 hPa 0,0 l/m 0 min 0 min 0 W/m 8,4 km/h (2 Bft)
24.02.2015 20:14 4,6 C 2,2 C 89 % 1011,5 hPa 0,0 l/m 0 min 0 min 0 W/m 6,3 km/h (2 Bft)
24.02.2015 20:16 4,6 C 2,2 C 89 % 1011,5 hPa 0,0 l/m 0 min 0 min 0 W/m 6,3 km/h (2 Bft)
24.02.2015 20:18 4,6 C 2,2 C 89 % 1011,5 hPa 0,0 l/m 0 min 0 min 0 W/m 6,3 km/h (2 Bft)
24.02.2015 20:20 4,6 C 2,2 C 89 % 1011,6 hPa 0,0 l/m 0 min 0 min 0 W/m 8,4 km/h (2 Bft)
24.02.2015 20:22 4,6 C 2,2 C 89 % 1011,6 hPa 0,0 l/m 0 min 0 min 0 W/m 8,4 km/h (2 Bft)
24.02.2015 20:24 4,6 C 2,2 C 89 % 1011,6 hPa 0,0 l/m 0 min 0 min 0 W/m 8,4 km/h (2 Bft)
24.02.2015 20:26 4,6 C 2,2 C 89 % 1011,6 hPa 0,0 l/m 0 min 0 min 0 W/m 10,5 km/h (2 Bft)
24.02.2015 20:28 4,5 C 2,2 C 89 % 1011,6 hPa 0,0 l/m 0 min 0 min 0 W/m 10,5 km/h (2 Bft)
24.02.2015 20:30 4,5 C 2,2 C 89 % 1011,6 hPa 0,0 l/m 0 min 0 min 0 W/m 12,6 km/h (3 Bft)
24.02.2015 20:32 4,5 C 2,2 C 89 % 1011,6 hPa 0,0 l/m 0 min 0 min 0 W/m 8,4 km/h (2 Bft)
24.02.2015 20:34 4,5 C 2,2 C 89 % 1011,6 hPa 0,0 l/m 0 min 0 min 0 W/m 8,4 km/h (2 Bft)
24.02.2015 20:36 4,4 C 2,2 C 89 % 1011,6 hPa 0,0 l/m 0 min 0 min 0 W/m 10,5 km/h (2 Bft)
24.02.2015 20:38 4,4 C 2,2 C 89 % 1011,5 hPa 0,0 l/m 0 min 0 min 0 W/m 8,4 km/h (2 Bft)
24.02.2015 20:40 4,4 C 2,2 C 89 % 1011,5 hPa 0,0 l/m 0 min 0 min 0 W/m 12,6 km/h (3 Bft)
24.02.2015 20:42 4,4 C 2,2 C 89 % 1011,4 hPa 0,0 l/m 0 min 0 min 0 W/m 10,5 km/h (2 Bft)
24.02.2015 20:44 4,4 C 2,2 C 89 % 1011,5 hPa 0,0 l/m 0 min 0 min 0 W/m 8,4 km/h (2 Bft)
24.02.2015 20:46 4,4 C 2,2 C 89 % 1011,5 hPa 0,0 l/m 0 min 0 min 0 W/m 12,6 km/h (3 Bft)
24.02.2015 20:48 4,3 C 2,2 C 89 % 1011,5 hPa 0,0 l/m 0 min 0 min 0 W/m 8,4 km/h (2 Bft)
24.02.2015 20:50 4,3 C 2,2 C 89 % 1011,5 hPa 0,0 l/m 0 min 0 min 0 W/m 6,3 km/h (2 Bft)
24.02.2015 20:52 4,3 C 2,2 C 89 % 1011,5 hPa 0,0 l/m 0 min 0 min 0 W/m 6,3 km/h (2 Bft)
24.02.2015 20:54 4,3 C 1,7 C 90 % 1011,6 hPa 0,0 l/m 0 min 0 min 0 W/m 4,2 km/h (1 Bft)
24.02.2015 20:56 4,3 C 1,7 C 90 % 1011,6 hPa 0,0 l/m 0 min 0 min 0 W/m 8,4 km/h (2 Bft)
24.02.2015 20:58 4,3 C 1,7 C 90 % 1011,6 hPa 0,0 l/m 0 min 0 min 0 W/m 6,3 km/h (2 Bft)
24.02.2015 21:00 4,3 C 1,7 C 90 % 1011,6 hPa 0,0 l/m 0 min 0 min 0 W/m 6,3 km/h (2 Bft)
24.02.2015 21:02 4,3 C 1,7 C 90 % 1011,6 hPa 0,0 l/m 0 min 0 min 0 W/m 6,3 km/h (2 Bft)
24.02.2015 21:04 4,3 C 1,7 C 90 % 1011,6 hPa 0,0 l/m 0 min 0 min 0 W/m 6,3 km/h (2 Bft)
24.02.2015 21:06 4,2 C 1,7 C 90 % 1011,6 hPa 0,0 l/m 0 min 0 min 0 W/m 6,3 km/h (2 Bft)
24.02.2015 21:08 4,2 C 1,1 C 90 % 1011,6 hPa 0,0 l/m 0 min 0 min 0 W/m 12,6 km/h (3 Bft)
24.02.2015 21:10 4,2 C 1,7 C 90 % 1011,6 hPa 0,0 l/m 0 min 0 min 0 W/m 10,5 km/h (2 Bft)
24.02.2015 21:12 4,2 C 1,1 C 90 % 1011,7 hPa 0,0 l/m 0 min 0 min 0 W/m 8,4 km/h (2 Bft)
24.02.2015 21:14 4,2 C 1,1 C 90 % 1011,6 hPa 0,0 l/m 0 min 0 min 0 W/m 6,3 km/h (2 Bft)
24.02.2015 21:16 4,1 C 1,1 C 90 % 1011,6 hPa 0,0 l/m 0 min 0 min 0 W/m 10,5 km/h (2 Bft)
24.02.2015 21:18 4,1 C 1,1 C 90 % 1011,6 hPa 0,0 l/m 0 min 0 min 0 W/m 10,5 km/h (2 Bft)
24.02.2015 21:20 4,1 C 1,1 C 90 % 1011,6 hPa 0,0 l/m 0 min 0 min 0 W/m 10,5 km/h (2 Bft)
24.02.2015 21:22 4,1 C 1,7 C 90 % 1011,6 hPa 0,0 l/m 0 min 0 min 0 W/m 10,5 km/h (2 Bft)
24.02.2015 21:24 4,0 C 1,7 C 90 % 1011,6 hPa 0,0 l/m 0 min 0 min 0 W/m 6,3 km/h (2 Bft)
24.02.2015 21:26 4,0 C 1,7 C 90 % 1011,6 hPa 0,0 l/m 0 min 0 min 0 W/m 6,3 km/h (2 Bft)
24.02.2015 21:28 4,0 C 1,7 C 90 % 1011,6 hPa 0,0 l/m 0 min 0 min 0 W/m 8,4 km/h (2 Bft)
24.02.2015 21:30 3,9 C 1,7 C 90 % 1011,6 hPa 0,0 l/m 0 min 0 min 0 W/m 8,4 km/h (2 Bft)
24.02.2015 21:32 3,9 C 1,7 C 90 % 1011,7 hPa 0,0 l/m 0 min 0 min 0 W/m 8,4 km/h (2 Bft)
24.02.2015 21:34 3,9 C 1,7 C 90 % 1011,8 hPa 0,0 l/m 0 min 0 min 0 W/m 6,3 km/h (2 Bft)
24.02.2015 21:36 3,9 C 1,7 C 90 % 1011,8 hPa 0,0 l/m 0 min 0 min 0 W/m 6,3 km/h (2 Bft)
24.02.2015 21:38 3,9 C 2,2 C 90 % 1011,9 hPa 0,0 l/m 0 min 0 min 0 W/m 8,4 km/h (2 Bft)
24.02.2015 21:40 3,9 C 2,2 C 90 % 1012,0 hPa 0,0 l/m 0 min 0 min 0 W/m 6,3 km/h (2 Bft)
24.02.2015 21:42 3,9 C 2,2 C 90 % 1011,9 hPa 0,0 l/m 0 min 0 min 0 W/m 6,3 km/h (2 Bft)
24.02.2015 21:44 3,9 C 2,8 C 91 % 1011,9 hPa 0,0 l/m 0 min 0 min 0 W/m 4,2 km/h (1 Bft)
24.02.2015 21:46 3,9 C 2,8 C 91 % 1011,9 hPa 0,0 l/m 0 min 0 min 0 W/m 4,2 km/h (1 Bft)
24.02.2015 21:48 3,9 C 2,2 C 91 % 1011,9 hPa 0,0 l/m 0 min 0 min 0 W/m 2,1 km/h (1 Bft)
24.02.2015 21:50 3,9 C 2,2 C 91 % 1011,9 hPa 0,0 l/m 0 min 0 min 0 W/m 4,2 km/h (1 Bft)
24.02.2015 21:52 3,9 C 2,2 C 91 % 1012,0 hPa 0,0 l/m 0 min 0 min 0 W/m 4,2 km/h (1 Bft)
24.02.2015 21:54 3,9 C 2,2 C 91 % 1012,0 hPa 0,0 l/m 0 min 0 min 0 W/m 4,2 km/h (1 Bft)
24.02.2015 21:56 3,9 C 2,2 C 91 % 1012,1 hPa 0,0 l/m 0 min 0 min 0 W/m 6,3 km/h (2 Bft)
24.02.2015 21:58 3,9 C 2,2 C 91 % 1012,1 hPa 0,0 l/m 0 min 0 min 0 W/m 6,3 km/h (2 Bft)
24.02.2015 22:00 3,9 C 2,2 C 91 % 1012,2 hPa 0,0 l/m 0 min 0 min 0 W/m 6,3 km/h (2 Bft)
24.02.2015 22:02 3,9 C 2,2 C 91 % 1012,3 hPa 0,0 l/m 0 min 0 min 0 W/m 8,4 km/h (2 Bft)
24.02.2015 22:04 3,9 C 2,8 C 91 % 1012,7 hPa 0,0 l/m 0 min 0 min 0 W/m 12,6 km/h (3 Bft)
24.02.2015 22:06 3,9 C 2,8 C 91 % 1012,9 hPa 0,0 l/m 0 min 0 min 0 W/m 16,7 km/h (3 Bft)
24.02.2015 22:08 3,9 C 2,2 C 91 % 1013,0 hPa 0,0 l/m 0 min 2 min 0 W/m 31,4 km/h (5 Bft)
24.02.2015 22:10 3,9 C 0,0 C 91 % 1013,2 hPa 0,0 l/m 0 min 2 min 0 W/m 25,1 km/h (4 Bft)
24.02.2015 22:12 3,8 C 0,0 C 91 % 1013,3 hPa 0,4 l/m 0 min 2 min 0 W/m 25,1 km/h (4 Bft)
24.02.2015 22:14 3,6 C 0,0 C 91 % 1013,3 hPa 0,2 l/m 0 min 2 min 0 W/m 20,9 km/h (4 Bft)
24.02.2015 22:16 3,4 C 0,6 C 90 % 1013,3 hPa 0,4 l/m 0 min 2 min 0 W/m 29,3 km/h (5 Bft)
24.02.2015 22:18 3,3 C 0,6 C 90 % 1013,3 hPa 0,2 l/m 0 min 2 min 0 W/m 23,0 km/h (4 Bft)
24.02.2015 22:20 3,2 C 0,6 C 91 % 1013,4 hPa 0,2 l/m 0 min 2 min 0 W/m 35,6 km/h (5 Bft)
24.02.2015 22:22 3,1 C 0,6 C 91 % 1013,4 hPa 0,0 l/m 0 min 2 min 0 W/m 31,4 km/h (5 Bft)
24.02.2015 22:24 3,0 C 0,6 C 91 % 1013,4 hPa 0,4 l/m 0 min 2 min 0 W/m 25,1 km/h (4 Bft)
24.02.2015 22:26 2,9 C 0,6 C 91 % 1013,5 hPa 0,2 l/m 0 min 2 min 0 W/m 25,1 km/h (4 Bft)
24.02.2015 22:28 2,9 C 0,6 C 91 % 1013,5 hPa 0,2 l/m 0 min 0 min 0 W/m 25,1 km/h (4 Bft)
24.02.2015 22:30 2,9 C 0,6 C 91 % 1013,5 hPa 0,2 l/m 0 min 0 min 0 W/m 25,1 km/h (4 Bft)
24.02.2015 22:32 2,8 C 0,6 C 92 % 1013,6 hPa 0,4 l/m 0 min 0 min 0 W/m 27,2 km/h (4 Bft)
24.02.2015 22:34 2,8 C 0,6 C 92 % 1013,5 hPa 0,2 l/m 0 min 0 min 0 W/m 23,0 km/h (4 Bft)
24.02.2015 22:36 2,8 C 1,1 C 92 % 1013,5 hPa 0,0 l/m 0 min 0 min 0 W/m 23,0 km/h (4 Bft)
24.02.2015 22:38 2,8 C 1,1 C 92 % 1013,4 hPa 0,2 l/m 0 min 0 min 0 W/m 27,2 km/h (4 Bft)
24.02.2015 22:40 2,7 C 1,1 C 92 % 1013,4 hPa 0,2 l/m 0 min 0 min 0 W/m 10,5 km/h (2 Bft)
24.02.2015 22:42 2,7 C 0,6 C 92 % 1013,3 hPa 0,0 l/m 0 min 0 min 0 W/m 12,6 km/h (3 Bft)
24.02.2015 22:44 2,7 C 1,1 C 93 % 1013,3 hPa 0,2 l/m 0 min 0 min 0 W/m 8,4 km/h (2 Bft)
24.02.2015 22:46 2,7 C 1,1 C 93 % 1013,1 hPa 0,0 l/m 0 min 0 min 0 W/m 8,4 km/h (2 Bft)
24.02.2015 22:48 2,7 C 1,1 C 93 % 1013,0 hPa 0,2 l/m 0 min 0 min 0 W/m 10,5 km/h (2 Bft)
24.02.2015 22:50 2,7 C 1,1 C 93 % 1013,1 hPa 0,0 l/m 0 min 0 min 0 W/m 8,4 km/h (2 Bft)
24.02.2015 22:52 2,7 C 1,1 C 93 % 1013,0 hPa 0,0 l/m 0 min 2 min 0 W/m 8,4 km/h (2 Bft)
24.02.2015 22:54 2,7 C 0,6 C 93 % 1013,0 hPa 0,2 l/m 0 min 2 min 0 W/m 6,3 km/h (2 Bft)
24.02.2015 22:56 2,7 C 0,6 C 93 % 1012,9 hPa 0,0 l/m 0 min 2 min 0 W/m 6,3 km/h (2 Bft)
24.02.2015 22:58 2,6 C 1,1 C 93 % 1013,0 hPa 0,0 l/m 0 min 2 min 0 W/m 4,2 km/h (1 Bft)
24.02.2015 23:00 2,6 C 1,1 C 93 % 1013,0 hPa 0,0 l/m 0 min 2 min 0 W/m 4,2 km/h (1 Bft)
24.02.2015 23:02 2,6 C 1,1 C 93 % 1013,1 hPa 0,0 l/m 0 min 2 min 0 W/m 6,3 km/h (2 Bft)
24.02.2015 23:04 2,6 C 1,1 C 93 % 1012,9 hPa 0,2 l/m 0 min 2 min 0 W/m 8,4 km/h (2 Bft)
24.02.2015 23:06 2,6 C 1,1 C 93 % 1012,9 hPa 0,0 l/m 0 min 2 min 0 W/m 8,4 km/h (2 Bft)
24.02.2015 23:08 2,6 C 1,1 C 93 % 1012,9 hPa 0,0 l/m 0 min 0 min 0 W/m 8,4 km/h (2 Bft)
24.02.2015 23:10 2,6 C 1,1 C 93 % 1012,9 hPa 0,0 l/m 0 min 0 min 0 W/m 8,4 km/h (2 Bft)
24.02.2015 23:12 2,6 C 1,1 C 93 % 1012,9 hPa 0,0 l/m 0 min 0 min 0 W/m 8,4 km/h (2 Bft)
24.02.2015 23:14 2,6 C 1,1 C 94 % 1012,9 hPa 0,0 l/m 0 min 0 min 0 W/m 10,5 km/h (2 Bft)
24.02.2015 23:16 2,6 C 1,1 C 94 % 1012,9 hPa 0,0 l/m 0 min 0 min 0 W/m 10,5 km/h (2 Bft)
24.02.2015 23:18 2,6 C 1,1 C 94 % 1012,9 hPa 0,0 l/m 0 min 0 min 0 W/m 14,6 km/h (3 Bft)
24.02.2015 23:20 2,6 C 1,1 C 94 % 1013,0 hPa 0,0 l/m 0 min 0 min 0 W/m 12,6 km/h (3 Bft)
24.02.2015 23:22 2,6 C 1,1 C 94 % 1013,1 hPa 0,0 l/m 0 min 0 min 0 W/m 12,6 km/h (3 Bft)
24.02.2015 23:24 2,7 C 1,1 C 94 % 1013,3 hPa 0,0 l/m 0 min 0 min 0 W/m 12,6 km/h (3 Bft)
24.02.2015 23:26 2,7 C 1,1 C 94 % 1013,2 hPa 0,2 l/m 0 min 0 min 0 W/m 12,6 km/h (3 Bft)
24.02.2015 23:28 2,7 C 1,1 C 94 % 1013,2 hPa 0,0 l/m 0 min 0 min 0 W/m 14,6 km/h (3 Bft)
24.02.2015 23:30 2,7 C 1,1 C 94 % 1013,2 hPa 0,0 l/m 0 min 0 min 0 W/m 14,6 km/h (3 Bft)
24.02.2015 23:32 2,7 C 1,1 C 94 % 1013,2 hPa 0,0 l/m 0 min 0 min 0 W/m 14,6 km/h (3 Bft)
24.02.2015 23:34 2,7 C 1,1 C 94 % 1013,1 hPa 0,0 l/m 0 min 0 min 0 W/m 18,8 km/h (3 Bft)
24.02.2015 23:36 2,7 C 1,1 C 94 % 1013,2 hPa 0,0 l/m 0 min 0 min 0 W/m 12,6 km/h (3 Bft)
24.02.2015 23:38 2,7 C 1,1 C 94 % 1013,1 hPa 0,0 l/m 0 min 0 min 0 W/m 14,6 km/h (3 Bft)
24.02.2015 23:40 2,7 C 1,1 C 94 % 1013,1 hPa 0,0 l/m 0 min 0 min 0 W/m 20,9 km/h (4 Bft)
24.02.2015 23:42 2,7 C 1,1 C 94 % 1013,1 hPa 0,0 l/m 0 min 0 min 0 W/m 16,7 km/h (3 Bft)
24.02.2015 23:44 2,6 C 0,6 C 94 % 1013,1 hPa 0,0 l/m 0 min 0 min 0 W/m 14,6 km/h (3 Bft)
24.02.2015 23:46 2,6 C 0,6 C 94 % 1013,1 hPa 0,0 l/m 0 min 0 min 0 W/m 14,6 km/h (3 Bft)
24.02.2015 23:48 2,6 C 0,6 C 94 % 1013,1 hPa 0,0 l/m 0 min 0 min 0 W/m 10,5 km/h (2 Bft)
24.02.2015 23:50 2,6 C 0,6 C 94 % 1013,2 hPa 0,0 l/m 0 min 0 min 0 W/m 14,6 km/h (3 Bft)
24.02.2015 23:52 2,6 C 1,1 C 94 % 1013,2 hPa 0,0 l/m 0 min 0 min 0 W/m 14,6 km/h (3 Bft)
24.02.2015 23:54 2,6 C 1,1 C 94 % 1013,3 hPa 0,0 l/m 0 min 0 min 0 W/m 14,6 km/h (3 Bft)
24.02.2015 23:56 2,5 C 1,1 C 94 % 1013,4 hPa 0,0 l/m 0 min 0 min 0 W/m 12,6 km/h (3 Bft)
24.02.2015 23:58 2,5 C 1,1 C 94 % 1013,5 hPa 0,0 l/m 0 min 0 min 0 W/m 12,6 km/h (3 Bft)
_ Min-Zeit 23:56 22:10 11:34 00:00 - - - - 21:48
Minimum _ 2,5 C 0,0 C 81 % 997,4 hPa - - - - 2,1 km/h (1 Bft)
_ Max-Zeit 15:24 11:58 23:14 22:32 22:12 09:10 06:44 11:18 13:30
Maximum _ 7,3 C 6,7 C 94 % 1013,6 hPa 0,4 l/m 2 min 2 min 582 W/m 52,3 km/h
W (7 Bft)
Durchschnitt _ 4,6 C 3,1 C 87 % 1004,4 hPa #5,0 l/m #2:28 h #1:36 h 134 W/m 23,0 km/h (4 Bft)
© 2015 W. Hausmann